FW9122 Weather Reports


Display with metric or nautical units.
time (UTC)temp
F
wind
direction
speed
MPH
gust
MPH
rain 1hr
in
rain 24hr
in
rain mn
in
humidity
%
barometer
mb
20260507114921 60 55 4.0 12.0 0.00 0.00 0.00 79 1013.9
20260507114818 60 62 4.0 12.0 0.00 0.00 0.00 79 1014.0
20260507114720 60 59 4.0 12.0 0.00 0.00 0.00 79 1014.1
20260507114619 60 30 3.0 11.0 0.00 0.00 0.00 80 1014.0
20260507114527 60 28 3.0 6.0 0.00 0.00 0.00 79 1014.0
20260507114320 60 327 4.0 7.0 0.00 0.00 0.00 79 1013.8
20260507114220 60 333 4.0 7.0 0.00 0.00 0.00 79 1013.8
20260507114119 60 65 4.0 7.0 0.00 0.00 0.00 80 1014.0
20260507114036 60 49 4.0 7.0 0.00 0.00 0.00 79 1013.9
20260507113921 60 24 4.0 7.0 0.00 0.00 0.00 79 1014.0
20260507113819 60 22 4.0 7.0 0.00 0.00 0.00 79 1014.1
20260507113720 60 28 4.0 7.0 0.00 0.00 0.00 78 1014.0
20260507113528 60 53 3.0 8.0 0.00 0.00 0.00 78 1014.1
20260507113321 61 54 3.0 8.0 0.00 0.00 0.00 79 1014.0
20260507113220 61 47 3.0 8.0 0.00 0.00 0.00 80 1014.1
20260507113119 61 16 4.0 8.0 0.00 0.00 0.00 79 1014.0
20260507113036 60 360 4.0 8.0 0.00 0.00 0.00 78 1014.1
20260507112921 61 355 4.0 8.0 0.00 0.00 0.00 79 1014.0
20260507112818 61 20 4.0 8.0 0.00 0.00 0.00 79 1014.0
20260507112720 61 15 3.0 8.0 0.00 0.00 0.00 78 1014.1
20260507112618 61 40 3.0 8.0 0.00 0.00 0.00 79 1014.0
20260507112528 61 30 3.0 8.0 0.00 0.00 0.00 78 1014.0
20260507112321 61 32 2.0 8.0 0.00 0.00 0.00 78 1013.9
20260507112118 61 47 2.0 5.0 0.00 0.00 0.00 78 1013.9
20260507112036 61 360 2.0 5.0 0.00 0.00 0.00 78 1014.0
20260507111921 61 54 2.0 4.0 0.00 0.00 0.00 78 1014.0
20260507111802 61 5 1.0 4.0 0.00 0.00 0.00 78 1014.1
20260507111703 61 58 1.0 4.0 0.00 0.00 0.00 78 1014.0
20260507111602 61 91 2.0 4.0 0.00 0.00 0.00 78 1014.1
20260507111506 61 92 2.0 5.0 0.00 0.00 0.00 78 1014.0
20260507111402 61 262 2.0 6.0 0.00 0.00 0.00 78 1014.0
20260507111320 61 265 2.0 6.0 0.00 0.00 0.00 77 1014.0
20260507111219 61 263 2.0 6.0 0.00 0.00 0.00 77 1014.2
20260507111121 61 259 2.0 6.0 0.00 0.00 0.00 77 1014.0
20260507111037 61 279 2.0 6.0 0.00 0.00 0.00 78 1014.0
20260507110819 61 30 2.0 6.0 0.00 0.00 0.00 78 1014.1
20260507110720 61 31 3.0 6.0 0.00 0.00 0.00 78 1014.0
20260507110619 61 36 2.0 6.0 0.00 0.00 0.00 78 1014.0
20260507110528 61 35 2.0 5.0 0.00 0.00 0.00 78 1014.0
20260507110303 61 61 2.0 4.0 0.00 0.00 0.00 77 1014.0
20260507110203 61 69 2.0 4.0 0.00 0.00 0.00 77 1014.1
20260507110031 61 5 2.0 4.0 0.00 0.00 0.00 77 1014.1
20260507105921 61 5 2.0 6.0 0.00 0.00 0.00 77 1014.1
20260507105818 61 47 2.0 6.0 0.00 0.00 0.00 77 1014.1
20260507105718 61 22 2.0 6.0 0.00 0.00 0.00 78 1014.1
20260507105618 61 42 2.0 6.0 0.00 0.00 0.00 77 1014.1
20260507105529 61 42 2.0 6.0 0.00 0.00 0.00 77 1014.1
20260507105418 61 42 2.0 6.0 0.00 0.00 0.00 77 1014.1
20260507105319 61 28 2.0 6.0 0.00 0.00 0.00 77 1014.0
20260507105120 61 246 2.0 6.0 0.00 0.00 0.00 77 1014.1
20260507105036 61 343 2.0 6.0 0.00 0.00 0.00 77 1014.1
20260507104819 61 50 2.0 6.0 0.00 0.00 0.00 76 1014.0
20260507104620 61 27 3.0 6.0 0.00 0.00 0.00 77 1014.1
20260507104527 61 273 3.0 8.0 0.00 0.00 0.00 76 1014.0
20260507104419 61 313 3.0 8.0 0.00 0.00 0.00 76 1014.1
20260507104321 61 267 3.0 8.0 0.00 0.00 0.00 75 1014.0
20260507104218 61 11 3.0 8.0 0.00 0.00 0.00 75 1014.0
20260507104039 61 334 3.0 8.0 0.00 0.00 0.00 75 1014.1
20260507103920 61 26 3.0 8.0 0.00 0.00 0.00 75 1014.1
20260507103818 61 19 3.0 8.0 0.00 0.00 0.00 75 1014.0
20260507103619 62 39 3.0 6.0 0.00 0.00 0.00 73 1014.0
20260507103527 62 42 2.0 6.0 0.00 0.00 0.00 75 1014.1
20260507103419 62 267 2.0 6.0 0.00 0.00 0.00 74 1014.0
20260507103321 62 269 3.0 6.0 0.00 0.00 0.00 73 1014.0
20260507103218 62 302 3.0 6.0 0.00 0.00 0.00 73 1014.0
20260507103120 62 309 2.0 6.0 0.00 0.00 0.00 73 1014.1
20260507103036 62 347 2.0 6.0 0.00 0.00 0.00 72 1014.0
20260507102920 62 34 3.0 6.0 0.00 0.00 0.00 71 1014.0
20260507102819 62 17 3.0 6.0 0.00 0.00 0.00 72 1013.9
20260507102721 62 351 3.0 6.0 0.00 0.00 0.00 72 1014.1
20260507102620 63 341 2.0 9.0 0.00 0.00 0.00 73 1014.1
20260507102527 63 61 2.0 9.0 0.00 0.00 0.00 72 1014.0
20260507102321 63 355 3.0 9.0 0.00 0.00 0.00 72 1014.0
20260507102218 63 302 3.0 9.0 0.00 0.00 0.00 72 1014.1
20260507102120 63 320 3.0 9.0 0.00 0.00 0.00 72 1014.0
20260507101619 63 62 3.0 6.0 0.00 0.00 0.00 74 1013.9
20260507101321 63 44 3.0 6.0 0.00 0.00 0.00 70 1014.1
20260507101202 63 45 3.0 6.0 0.00 0.00 0.00 71 1014.0
20260507101101 63 75 2.0 6.0 0.00 0.00 0.00 73 1014.0
20260507100904 63 41 2.0 6.0 0.00 0.00 0.00 72 1014.0
20260507100801 63 61 2.0 6.0 0.00 0.00 0.00 71 1014.0
20260507100701 63 56 1.0 5.0 0.00 0.00 0.00 71 1014.0
20260507100602 63 66 1.0 4.0 0.00 0.00 0.00 73 1014.0
20260507100504 63 138 1.0 3.0 0.00 0.00 0.00 71 1014.0
20260507100402 62 138 1.0 3.0 0.00 0.00 0.00 71 1014.0
20260507100302 62 138 1.0 3.0 0.00 0.00 0.00 72 1014.0
20260507100006 62 138 1.0 3.0 0.00 0.00 0.00 70 1014.0
20260507095804 62 105 0.0 3.0 0.00 0.00 0.00 70 1014.2
20260507095702 63 111 0.0 2.0 0.00 0.00 0.00 72 1014.2
20260507095602 62 112 0.0 1.0 0.00 0.00 0.00 71 1014.1
20260507095305 62 112 1.0 3.0 0.00 0.00 0.00 72 1014.1
20260507095201 62 112 1.0 3.0 0.00 0.00 0.00 72 1014.1
20260507095002 62 112 1.0 3.0 0.00 0.00 0.00 74 1014.1
20260507094902 62 112 2.0 4.0 0.00 0.00 0.00 75 1014.1
20260507094802 62 112 2.0 5.0 0.00 0.00 0.00 74 1014.0
20260507094401 62 113 3.0 5.0 0.00 0.00 0.00 74 1014.1
20260507094304 62 46 3.0 6.0 0.00 0.00 0.00 74 1014.0
20260507094202 62 43 4.0 8.0 0.00 0.00 0.00 73 1014.0
20260507094101 62 46 4.0 8.0 0.00 0.00 0.00 72 1014.0
20260507094002 62 86 3.0 8.0 0.00 0.00 0.00 73 1014.0
20260507093904 62 84 3.0 8.0 0.00 0.00 0.00 71 1014.1
20260507093802 62 95 3.0 8.0 0.00 0.00 0.00 71 1014.1
20260507093702 62 92 3.0 8.0 0.00 0.00 0.00 71 1014.1
20260507093602 62 75 3.0 8.0 0.00 0.00 0.00 70 1014.1
20260507093505 62 84 2.0 8.0 0.00 0.00 0.00 73 1014.0
20260507093402 62 67 2.0 8.0 0.00 0.00 0.00 73 1014.1
20260507093301 62 61 2.0 8.0 0.00 0.00 0.00 73 1014.0
20260507093204 62 54 2.0 8.0 0.00 0.00 0.00 72 1014.1
20260507093103 62 74 2.0 5.0 0.00 0.00 0.00 72 1014.1
20260507093004 62 148 1.0 5.0 0.00 0.00 0.00 72 1014.0
20260507092901 62 163 1.0 5.0 0.00 0.00 0.00 71 1014.1
20260507092804 62 147 1.0 5.0 0.00 0.00 0.00 72 1014.0
20260507092701 62 111 1.0 5.0 0.00 0.00 0.00 71 1014.1
20260507092602 62 61 1.0 5.0 0.00 0.00 0.00 71 1014.1
20260507092502 62 21 1.0 5.0 0.00 0.00 0.00 71 1014.1
20260507092404 62 34 1.0 5.0 0.00 0.00 0.00 73 1014.1
20260507092302 62 40 1.0 5.0 0.00 0.00 0.00 73 1014.1
20260507092202 62 355 1.0 4.0 0.00 0.00 0.00 72 1014.0
20260507092103 62 229 1.0 3.0 0.00 0.00 0.00 72 1014.1
20260507092002 61 229 1.0 3.0 0.00 0.00 0.00 71 1014.1
20260507091602 61 233 1.0 3.0 0.00 0.00 0.00 72 1014.1
20260507091419 61 233 1.0 3.0 0.00 0.00 0.00 73 1014.1
20260507091320 61 233 1.0 3.0 0.00 0.00 0.00 72 1014.0
20260507091219 61 261 1.0 3.0 0.00 0.00 0.00 74 1014.1
20260507091121 61 161 1.0 2.0 0.00 0.00 0.00 74 1014.1
20260507091039 61 89 1.0 5.0 0.00 0.00 0.00 74 1014.0
20260507090819 61 89 1.0 5.0 0.00 0.00 0.00 72 1014.0
20260507090721 61 89 2.0 5.0 0.00 0.00 0.00 73 1014.0
20260507090619 61 89 2.0 5.0 0.00 0.00 0.00 72 1014.0
20260507090528 61 89 2.0 6.0 0.00 0.00 0.00 72 1014.1
20260507090418 61 30 2.0 6.0 0.00 0.00 0.00 72 1014.1
20260507090319 61 23 2.0 6.0 0.00 0.00 0.00 72 1014.0
20260507090218 61 22 2.0 6.0 0.00 0.00 0.00 74 1014.1
20260507090041 61 5 2.0 6.0 0.00 0.00 0.00 73 1014.0
20260507085918 61 9 2.0 6.0 0.00 0.00 0.00 73 1014.0
20260507085820 61 9 2.0 6.0 0.00 0.00 0.00 73 1014.0
20260507085720 61 38 2.0 6.0 0.00 0.00 0.00 73 1014.0
20260507085619 61 38 2.0 4.0 0.00 0.00 0.00 74 1014.1
20260507085527 61 38 2.0 5.0 0.00 0.00 0.00 73 1013.9
20260507085421 60 40 2.0 5.0 0.00 0.00 0.00 75 1014.0
20260507085318 61 21 2.0 5.0 0.00 0.00 0.00 75 1014.1
20260507085220 60 17 2.0 5.0 0.00 0.00 0.00 75 1013.9
20260507085119 60 17 2.0 5.0 0.00 0.00 0.00 75 1014.1
20260507085037 60 17 2.0 5.0 0.00 0.00 0.00 74 1014.0
20260507084918 60 355 2.0 5.0 0.00 0.00 0.00 74 1014.0
20260507084820 60 355 2.0 5.0 0.00 0.00 0.00 74 1014.2
20260507084720 60 321 2.0 5.0 0.00 0.00 0.00 74 1014.0
20260507084618 60 27 2.0 6.0 0.00 0.00 0.00 74 1014.1
20260507084526 60 25 1.0 6.0 0.00 0.00 0.00 74 1014.1
20260507084318 61 14 1.0 6.0 0.00 0.00 0.00 74 1014.1
20260507084220 60 15 1.0 6.0 0.00 0.00 0.00 75 1014.0
20260507084118 60 36 1.0 6.0 0.00 0.00 0.00 75 1014.1
20260507084037 60 37 1.0 6.0 0.00 0.00 0.00 74 1014.0
20260507083920 60 37 1.0 6.0 0.00 0.00 0.00 74 1014.0
20260507083820 60 46 1.0 6.0 0.00 0.00 0.00 74 1014.1
20260507083720 60 5 1.0 3.0 0.00 0.00 0.00 75 1014.1
20260507083619 60 350 1.0 3.0 0.00 0.00 0.00 74 1014.0
20260507083528 60 258 1.0 3.0 0.00 0.00 0.00 74 1013.9
20260507083318 60 262 1.0 3.0 0.00 0.00 0.00 74 1013.9
20260507083218 60 267 1.0 3.0 0.00 0.00 0.00 73 1013.8
20260507083122 60 267 1.0 3.0 0.00 0.00 0.00 73 1013.9
20260507082918 60 333 1.0 3.0 0.00 0.00 0.00 74 1013.9
20260507082820 60 332 1.0 3.0 0.00 0.00 0.00 75 1014.0
20260507082721 60 329 1.0 3.0 0.00 0.00 0.00 74 1014.0
20260507082618 60 355 2.0 3.0 0.00 0.00 0.00 74 1014.0
20260507082526 60 355 2.0 3.0 0.00 0.00 0.00 73 1013.9
20260507082421 60 355 2.0 5.0 0.00 0.00 0.00 74 1013.8
20260507082318 60 355 2.0 5.0 0.00 0.00 0.00 74 1013.8
20260507082118 60 13 2.0 5.0 0.00 0.00 0.00 74 1013.9
20260507082037 60 340 2.0 5.0 0.00 0.00 0.00 74 1013.9
20260507081719 60 308 3.0 6.0 0.00 0.00 0.00 74 1013.9
20260507081618 61 272 3.0 6.0 0.00 0.00 0.00 74 1013.8
20260507081526 61 300 2.0 6.0 0.00 0.00 0.00 74 1013.9
20260507081421 61 217 3.0 6.0 0.00 0.00 0.00 74 1013.8
20260507081319 61 229 2.0 6.0 0.00 0.00 0.00 74 1013.8
20260507081220 60 321 3.0 6.0 0.00 0.00 0.00 73 1013.9
20260507081118 61 340 3.0 6.0 0.00 0.00 0.00 74 1013.9
20260507081037 61 342 3.0 6.0 0.00 0.00 0.00 75 1013.9
20260507080919 60 121 3.0 6.0 0.00 0.00 0.00 74 1013.8
20260507080820 60 70 3.0 6.0 0.00 0.00 0.00 75 1013.9
20260507080720 60 60 3.0 6.0 0.00 0.00 0.00 75 1013.9
20260507080618 60 58 3.0 6.0 0.00 0.00 0.00 74 1013.8
20260507080526 60 61 3.0 6.0 0.00 0.00 0.00 74 1013.9
20260507080218 60 41 4.0 5.0 0.00 0.00 0.00 75 1013.7
20260507080121 60 59 4.0 5.0 0.00 0.00 0.00 76 1013.8
20260507080042 60 64 4.0 5.0 0.00 0.00 0.00 76 1013.7
20260507075918 60 58 4.0 6.0 0.00 0.11 0.00 76 1013.8
20260507075722 60 360 4.0 6.0 0.00 0.11 0.00 75 1013.8
20260507075618 60 64 4.0 6.0 0.00 0.11 0.00 76 1013.9
20260507075419 60 29 3.0 8.0 0.00 0.11 0.00 76 1013.8
20260507075320 60 59 3.0 8.0 0.00 0.11 0.00 77 1013.8
20260507075218 59 53 3.0 8.0 0.00 0.11 0.00 75 1013.8
20260507074820 59 44 3.0 8.0 0.00 0.11 0.00 75 1014.0
20260507074718 59 27 3.0 8.0 0.00 0.11 0.00 76 1013.7
20260507074528 59 42 3.0 8.0 0.00 0.11 0.00 76 1013.9
20260507074418 59 59 3.0 8.0 0.00 0.11 0.00 76 1013.8
20260507074320 59 46 3.0 8.0 0.00 0.11 0.00 76 1013.8
20260507074218 59 47 3.0 8.0 0.00 0.11 0.00 75 1013.9
20260507074119 59 9 3.0 8.0 0.00 0.11 0.00 75 1013.9
20260507073920 59 35 3.0 8.0 0.00 0.11 0.00 75 1014.0
20260507073819 59 43 3.0 5.0 0.00 0.11 0.00 76 1013.8
20260507073719 59 28 3.0 6.0 0.00 0.11 0.00 77 1013.8
20260507073619 59 42 3.0 6.0 0.00 0.11 0.00 78 1013.9
20260507073528 59 42 3.0 6.0 0.00 0.11 0.00 79 1013.9
20260507073419 59 76 3.0 6.0 0.00 0.11 0.00 78 1013.8
20260507073320 59 81 3.0 6.0 0.00 0.11 0.00 77 1013.8
20260507073218 59 82 3.0 6.0 0.00 0.11 0.00 78 1013.9
20260507073120 58 59 3.0 6.0 0.00 0.11 0.00 78 1013.9
20260507073035 58 51 3.0 6.0 0.00 0.11 0.00 78 1013.9
20260507072920 58 45 3.0 6.0 0.00 0.11 0.00 78 1013.8
20260507072618 58 65 3.0 6.0 0.00 0.11 0.00 80 1013.8
20260507072529 58 59 3.0 6.0 0.00 0.11 0.00 80 1013.8
20260507072419 58 61 3.0 6.0 0.00 0.11 0.00 79 1013.7
20260507072319 57 62 3.0 6.0 0.00 0.11 0.00 79 1013.8
20260507072221 57 34 3.0 6.0 0.00 0.11 0.00 78 1013.7
20260507072038 58 63 3.0 5.0 0.00 0.11 0.00 77 1013.7
20260507071820 58 53 3.0 4.0 0.00 0.11 0.00 77 1013.7
20260507071718 58 41 2.0 4.0 0.00 0.11 0.00 77 1013.7
20260507071618 58 51 2.0 4.0 0.00 0.11 0.00 77 1013.7
20260507071530 58 65 2.0 4.0 0.00 0.11 0.00 76 1013.7
20260507071320 58 70 1.0 3.0 0.00 0.11 0.00 78 1013.7
20260507071119 58 72 1.0 3.0 0.00 0.11 0.00 77 1013.7
20260507071035 58 72 1.0 3.0 0.00 0.11 0.00 77 1013.6
20260507070920 58 70 0.0 3.0 0.00 0.11 0.00 78 1013.7
20260507070819 58 71 0.0 3.0 0.00 0.11 0.00 79 1013.6
20260507070718 58 73 0.0 3.0 0.00 0.11 0.00 79 1013.7
20260507070619 58 84 1.0 3.0 0.00 0.11 0.00 80 1013.7
20260507070529 58 86 1.0 3.0 0.00 0.11 0.00 81 1013.6
20260507070420 58 88 1.0 3.0 0.00 0.11 0.00 81 1013.6
20260507070318 57 88 1.0 3.0 0.00 0.11 0.00 80 1013.6
20260507070219 57 88 2.0 4.0 0.00 0.11 0.00 81 1013.6
20260507070120 57 88 2.0 4.0 0.00 0.11 0.00 81 1013.6
20260507070040 57 77 2.0 4.0 0.00 0.11 0.00 80 1013.7
20260507065919 57 68 2.0 4.0 0.00 0.11 0.00 81 1013.6
20260507065819 57 63 2.0 4.0 0.00 0.11 0.00 81 1013.6
20260507065718 57 60 2.0 4.0 0.00 0.11 0.00 81 1013.6
20260507065621 56 59 2.0 4.0 0.00 0.11 0.00 81 1013.6
20260507065418 56 57 2.0 4.0 0.00 0.11 0.00 81 1013.5
20260507065319 56 56 2.0 4.0 0.00 0.11 0.00 82 1013.6
20260507065120 56 65 2.0 4.0 0.00 0.11 0.00 82 1013.5
20260507065043 56 80 2.0 3.0 0.00 0.11 0.00 82 1013.6
20260507064918 56 92 2.0 3.0 0.00 0.11 0.00 82 1013.6
20260507064719 56 98 2.0 3.0 0.00 0.11 0.00 82 1013.6
20260507064619 56 107 2.0 3.0 0.00 0.11 0.00 82 1013.6
20260507064527 55 111 1.0 3.0 0.00 0.11 0.00 82 1013.6
20260507064319 55 134 1.0 3.0 0.00 0.11 0.00 82 1013.6
20260507064219 55 146 1.0 3.0 0.00 0.11 0.00 82 1013.6
20260507064118 55 150 1.0 3.0 0.00 0.11 0.00 82 1013.5
20260507064038 55 160 0.0 3.0 0.00 0.11 0.00 82 1013.7
20260507063920 55 167 0.0 3.0 0.00 0.11 0.00 83 1013.7
20260507063818 55 249 0.0 1.0 0.00 0.11 0.00 82 1013.7
20260507063621 55 249 0.0 1.0 0.00 0.11 0.00 81 1013.5
20260507063527 55 249 0.0 2.0 0.00 0.11 0.00 82 1013.5
20260507063219 54 249 0.0 2.0 0.00 0.11 0.00 85 1013.6
20260507063118 54 249 0.0 2.0 0.00 0.11 0.00 85 1013.5
20260507063036 54 249 0.0 2.0 0.00 0.11 0.00 86 1013.5
20260507062920 54 249 0.0 2.0 0.00 0.11 0.00 85 1013.5
20260507062818 53 249 0.0 2.0 0.00 0.11 0.00 87 1013.5
20260507062721 53 247 0.0 2.0 0.00 0.11 0.00 88 1013.4
20260507062528 53 245 0.0 0.0 0.00 0.11 0.00 87 1013.5
20260507062418 53 245 0.0 0.0 0.00 0.11 0.00 87 1013.5
20260507062320 52 245 0.0 0.0 0.00 0.11 0.00 88 1013.5
20260507062219 52 245 0.0 0.0 0.00 0.11 0.00 88 1013.5
20260507062120 52 245 0.0 0.0 0.00 0.11 0.00 89 1013.5
20260507062036 52 245 0.0 0.0 0.00 0.11 0.00 89 1013.5
20260507061920 52 245 0.0 1.0 0.00 0.11 0.00 90 1013.5
20260507061818 52 245 0.0 1.0 0.00 0.11 0.00 90 1013.5
20260507061720 51 245 0.0 1.0 0.00 0.11 0.00 91 1013.5
20260507061604 51 245 0.0 1.0 0.00 0.11 0.00 92 1013.5
20260507061409 51 245 0.0 2.0 0.00 0.11 0.00 92 1013.5
20260507061321 51 245 1.0 2.0 0.00 0.11 0.00 92 1013.5
20260507061219 50 245 1.0 3.0 0.00 0.11 0.00 92 1013.5
20260507061004 50 66 1.0 3.0 0.00 0.11 0.00 93 1013.5
20260507060907 50 66 1.0 3.0 0.00 0.11 0.00 93 1013.5
20260507060818 49 66 1.0 3.0 0.00 0.11 0.00 93 1013.4
20260507060721 49 66 1.0 3.0 0.00 0.11 0.00 93 1013.5
20260507060619 49 66 1.0 3.0 0.00 0.11 0.00 93 1013.5
20260507060527 49 66 1.0 3.0 0.00 0.11 0.00 93 1013.5
20260507060419 49 64 1.0 3.0 0.00 0.11 0.00 93 1013.4
20260507060219 49 64 1.0 2.0 0.00 0.11 0.00 93 1013.4
20260507060119 49 64 1.0 2.0 0.00 0.11 0.00 94 1013.4
20260507060040 49 64 1.0 2.0 0.00 0.11 0.00 94 1013.3
20260507055922 48 64 1.0 2.0 0.00 0.11 0.00 94 1013.4
20260507055822 48 65 0.0 2.0 0.00 0.11 0.00 95 1013.4
20260507055618 48 65 0.0 1.0 0.00 0.11 0.00 95 1013.4
20260507055528 48 65 0.0 1.0 0.00 0.11 0.00 95 1013.3
20260507055421 48 65 0.0 1.0 0.00 0.11 0.00 96 1013.3
20260507055318 48 65 0.0 1.0 0.00 0.11 0.00 96 1013.3
20260507055221 47 65 0.0 1.0 0.00 0.11 0.00 96 1013.3
20260507055119 47 65 0.0 1.0 0.00 0.11 0.00 96 1013.4
20260507055036 47 65 0.0 1.0 0.00 0.11 0.00 96 1013.3
20260507054820 47 65 0.0 1.0 0.00 0.11 0.00 96 1013.3
20260507054719 47 115 0.0 1.0 0.00 0.11 0.00 96 1013.2
20260507054619 47 115 0.0 1.0 0.00 0.11 0.00 96 1013.2
20260507054526 47 115 1.0 2.0 0.00 0.11 0.00 96 1013.2
20260507054421 46 115 1.0 2.0 0.00 0.11 0.00 96 1013.2
20260507054303 46 115 1.0 2.0 0.00 0.11 0.00 96 1013.2
20260507054202 46 115 1.0 2.0 0.00 0.11 0.00 96 1013.1
20260507054101 46 115 1.0 2.0 0.00 0.11 0.00 96 1013.2
20260507054002 46 115 1.0 2.0 0.00 0.11 0.00 96 1013.2
20260507053802 46 116 0.0 2.0 0.00 0.11 0.00 97 1013.1
20260507053703 45 116 0.0 2.0 0.00 0.11 0.00 97 1013.2
20260507053503 45 117 0.0 2.0 0.00 0.11 0.00 97 1013.1
20260507053301 45 196 0.0 1.0 0.00 0.11 0.00 97 1013.2
20260507053201 45 196 0.0 1.0 0.00 0.11 0.00 97 1013.1
20260507053104 44 196 0.0 1.0 0.00 0.11 0.00 97 1013.2
20260507053003 44 196 0.0 1.0 0.00 0.11 0.00 97 1013.2
20260507052901 44 196 0.0 1.0 0.00 0.11 0.00 96 1013.2
20260507052803 44 196 0.0 1.0 0.00 0.11 0.00 97 1013.0
20260507052703 44 196 0.0 1.0 0.00 0.11 0.00 96 1013.0
20260507052601 44 196 0.0 1.0 0.00 0.11 0.00 97 1013.2
20260507052502 44 198 0.0 1.0 0.00 0.11 0.00 96 1013.2
20260507052404 43 198 0.0 0.0 0.00 0.11 0.00 97 1013.1
20260507052301 43 198 0.0 0.0 0.00 0.11 0.00 96 1013.2
20260507052201 43 198 0.0 0.0 0.00 0.11 0.00 96 1013.0
20260507052004 42 198 0.0 0.0 0.00 0.11 0.00 96 1013.1
20260507051901 42 198 0.0 0.0 0.00 0.11 0.00 96 1013.1
20260507051801 42 198 0.0 0.0 0.00 0.11 0.00 96 1013.0
20260507051703 42 198 0.0 0.0 0.00 0.11 0.00 96 1013.0
20260507051601 42 198 0.0 0.0 0.00 0.11 0.00 96 1013.1
20260507051501 42 198 0.0 0.0 0.00 0.11 0.00 96 1012.9
20260507051403 42 198 0.0 0.0 0.00 0.11 0.00 96 1013.0
20260507051303 41 198 0.0 0.0 0.00 0.11 0.00 96 1013.0
20260507051201 41 198 0.0 0.0 0.00 0.11 0.00 96 1012.9
20260507050902 41 198 0.0 0.0 0.00 0.11 0.00 96 1013.0
20260507050801 41 198 0.0 2.0 0.00 0.11 0.00 96 1012.9
20260507050701 40 198 0.0 2.0 0.00 0.11 0.00 96 1013.0
20260507050604 40 198 1.0 2.0 0.00 0.11 0.00 96 1012.9
20260507050501 40 198 1.0 2.0 0.00 0.11 0.00 96 1012.8
20260507050303 40 198 1.0 2.0 0.00 0.11 0.00 96 1013.0
20260507050203 40 198 1.0 2.0 0.00 0.11 0.00 95 1012.9
20260507050006 39 198 1.0 2.0 0.00 0.11 0.00 95 1013.0
20260507045903 39 198 1.0 2.0 0.00 0.12 0.00 95 1012.9
20260507045801 39 198 0.0 2.0 0.00 0.12 0.00 95 1012.9
20260507045701 39 198 0.0 2.0 0.00 0.12 0.00 95 1012.8
20260507045603 39 198 0.0 2.0 0.00 0.12 0.00 95 1012.8
20260507045502 39 198 0.0 2.0 0.00 0.12 0.00 95 1012.9
20260507045401 39 198 0.0 2.0 0.00 0.12 0.00 95 1012.8
20260507045301 38 198 0.0 0.0 0.00 0.12 0.00 95 1012.8
20260507045204 38 198 0.0 0.0 0.00 0.12 0.00 95 1012.8
20260507045002 38 198 0.0 0.0 0.00 0.12 0.00 95 1012.7
20260507044901 38 198 0.0 0.0 0.00 0.12 0.00 95 1012.7
20260507044804 38 198 0.0 0.0 0.00 0.12 0.00 95 1012.7
20260507044601 38 198 0.0 0.0 0.00 0.12 0.00 95 1012.7
20260507044502 38 198 0.0 0.0 0.00 0.12 0.00 95 1012.8
20260507044404 38 198 0.0 0.0 0.00 0.12 0.00 95 1012.7
20260507044301 38 198 0.0 0.0 0.00 0.12 0.00 95 1012.8
20260507044201 38 198 0.0 0.0 0.00 0.12 0.00 95 1012.6
20260507044103 38 198 0.0 0.0 0.00 0.12 0.00 95 1012.7
20260507044002 38 198 0.0 0.0 0.00 0.12 0.00 95 1012.6
20260507043902 38 198 0.0 0.0 0.00 0.12 0.00 95 1012.6
20260507043704 38 198 0.0 0.0 0.00 0.12 0.00 95 1012.6
20260507043602 38 198 0.0 0.0 0.00 0.12 0.00 95 1012.5
20260507043403 38 198 0.0 0.0 0.00 0.12 0.00 95 1012.6
20260507043202 38 198 0.0 0.0 0.00 0.12 0.00 95 1012.6
20260507043101 38 198 0.0 0.0 0.00 0.12 0.00 95 1012.6
20260507042901 38 198 0.0 0.0 0.00 0.12 0.00 95 1012.6
20260507042801 38 198 0.0 0.0 0.00 0.12 0.00 95 1012.5
20260507042701 38 198 0.0 0.0 0.00 0.12 0.00 95 1012.6
20260507042501 38 198 0.0 0.0 0.00 0.12 0.00 95 1012.4
20260507042401 38 198 0.0 0.0 0.00 0.12 0.00 95 1012.5
20260507042204 38 198 0.0 0.0 0.00 0.12 0.00 95 1012.4
20260507042002 38 198 0.0 0.0 0.00 0.12 0.00 95 1012.4
20260507041901 38 198 0.0 0.0 0.00 0.12 0.00 95 1012.4
20260507041803 38 198 0.0 0.0 0.00 0.12 0.00 95 1012.4
20260507041701 38 198 0.0 0.0 0.00 0.12 0.00 95 1012.4
20260507041601 38 198 0.0 0.0 0.00 0.12 0.00 95 1012.3
20260507041501 38 198 0.0 0.0 0.00 0.12 0.00 95 1012.4
20260507041404 38 198 0.0 0.0 0.00 0.12 0.00 95 1012.3
20260507041301 38 198 0.0 0.0 0.00 0.12 0.00 95 1012.3
20260507041202 38 198 0.0 0.0 0.00 0.12 0.00 95 1012.3
20260507041101 38 198 0.0 0.0 0.00 0.12 0.00 95 1012.4
20260507041005 38 198 0.0 0.0 0.00 0.12 0.00 95 1012.3
20260507040902 38 198 0.0 0.0 0.00 0.12 0.00 95 1012.2
20260507040801 38 198 0.0 0.0 0.00 0.12 0.00 95 1012.3
20260507040703 38 198 0.0 0.0 0.00 0.12 0.00 95 1012.3
20260507040501 38 198 0.0 0.0 0.00 0.12 0.00 95 1012.3
20260507040403 38 198 0.0 0.0 0.00 0.12 0.00 95 1012.3
20260507040202 38 198 0.0 0.0 0.00 0.12 0.00 95 1012.3
20260507040008 38 198 0.0 0.0 0.00 0.12 0.00 95 1012.3
20260507035903 38 198 0.0 0.0 0.00 0.17 0.00 95 1012.4
20260507035702 38 198 0.0 0.0 0.00 0.17 0.00 95 1012.2
20260507035602 38 198 0.0 0.0 0.00 0.17 0.00 95 1012.4
20260507035502 38 198 0.0 0.0 0.00 0.17 0.00 95 1012.4
20260507035404 38 198 0.0 0.0 0.00 0.17 0.00 95 1012.3
20260507035203 38 198 0.0 0.0 0.00 0.17 0.00 95 1012.4
20260507035101 38 198 0.0 0.0 0.00 0.17 0.00 95 1012.3
20260507035002 38 198 0.0 0.0 0.00 0.17 0.00 95 1012.3
20260507034902 38 198 0.0 0.0 0.00 0.17 0.00 95 1012.4
20260507034804 38 198 0.0 0.0 0.00 0.17 0.00 95 1012.3
20260507034702 38 198 0.0 0.0 0.00 0.17 0.00 95 1012.3
20260507034601 38 197 0.0 0.0 0.00 0.17 0.00 95 1012.3
20260507034502 38 197 0.0 0.0 0.00 0.17 0.00 95 1012.2
20260507034404 38 197 0.0 0.0 0.00 0.17 0.00 95 1012.4
20260507034301 38 197 0.0 0.0 0.00 0.17 0.00 95 1012.1
20260507034203 38 197 0.0 0.0 0.00 0.17 0.00 95 1012.1
20260507034102 38 197 0.0 0.0 0.00 0.17 0.00 95 1012.1
20260507034002 38 197 0.0 0.0 0.00 0.17 0.00 95 1012.2
20260507033803 38 197 0.0 0.0 0.00 0.17 0.00 95 1012.3
20260507033702 38 197 0.0 0.0 0.00 0.17 0.00 95 1012.2
20260507033501 38 197 0.0 0.0 0.00 0.17 0.00 95 1012.2
20260507033404 38 197 0.0 0.0 0.00 0.17 0.00 95 1012.2
20260507033301 38 197 0.0 0.0 0.00 0.17 0.00 95 1012.3
20260507033103 38 197 0.0 0.0 0.00 0.17 0.00 95 1012.1
20260507033002 38 197 0.0 0.0 0.00 0.17 0.00 95 1012.1
20260507032901 38 197 0.0 0.0 0.00 0.17 0.00 95 1012.2
20260507032801 38 197 0.0 0.0 0.00 0.17 0.00 95 1012.1
20260507032704 38 197 0.0 0.0 0.00 0.17 0.00 95 1012.3
20260507032601 38 197 0.0 0.0 0.00 0.17 0.00 95 1012.2
20260507032502 38 197 0.0 0.0 0.00 0.17 0.00 95 1012.1
20260507032403 38 197 0.0 0.0 0.00 0.17 0.00 95 1012.1
20260507032102 38 197 0.0 0.0 0.00 0.17 0.00 95 1012.1
20260507031903 38 196 0.0 0.0 0.00 0.17 0.00 95 1012.1
20260507031703 39 196 0.0 0.0 0.00 0.17 0.00 95 1012.1
20260507031602 39 196 0.0 0.0 0.00 0.17 0.00 95 1012.1
20260507031501 39 196 0.0 0.0 0.00 0.17 0.00 95 1012.1
20260507031403 39 196 0.0 0.0 0.00 0.17 0.00 95 1012.2
20260507031302 38 196 0.0 0.0 0.00 0.17 0.00 95 1012.3
20260507031203 38 196 0.0 0.0 0.00 0.17 0.00 95 1012.3
20260507031101 39 196 0.0 0.0 0.00 0.17 0.00 95 1012.2
20260507031002 38 196 0.0 0.0 0.00 0.17 0.00 95 1012.0
20260507030901 39 196 0.0 0.0 0.00 0.17 0.00 95 1012.0
20260507030803 39 196 0.0 0.0 0.00 0.17 0.00 95 1012.2
20260507030601 39 196 0.0 0.0 0.00 0.17 0.00 95 1012.2
20260507030501 39 196 0.0 0.0 0.00 0.17 0.00 95 1012.1
20260507030302 39 196 0.0 0.0 0.00 0.17 0.00 95 1012.3
20260507030201 39 196 0.0 0.0 0.00 0.17 0.00 95 1012.2
20260507030101 39 196 0.0 0.0 0.00 0.17 0.00 95 1012.3
20260507030008 39 196 0.0 0.0 0.00 0.17 0.00 95 1012.3
20260507025901 39 196 0.0 0.0 0.00 0.30 0.00 95 1012.3
20260507025801 39 196 0.0 0.0 0.00 0.30 0.00 95 1012.2
20260507025702 39 196 0.0 0.0 0.00 0.30 0.00 94 1012.2
20260507025502 39 196 0.0 0.0 0.00 0.30 0.00 94 1012.2
20260507025403 39 196 0.0 0.0 0.00 0.30 0.00 94 1012.1
20260507025301 39 196 0.0 0.0 0.00 0.30 0.00 94 1012.2
20260507025203 39 196 0.0 0.0 0.00 0.30 0.00 95 1012.1
20260507025101 39 196 0.0 0.0 0.00 0.30 0.00 95 1012.2
20260507024901 39 196 0.0 0.0 0.00 0.30 0.00 95 1012.2
20260507024702 39 196 0.0 0.0 0.00 0.30 0.00 95 1012.2
20260507024601 39 196 0.0 0.0 0.00 0.30 0.00 95 1012.1
20260507024404 39 196 0.0 0.0 0.00 0.30 0.00 95 1012.1
20260507024302 39 196 0.0 0.0 0.00 0.30 0.00 95 1012.1
20260507024202 39 196 0.0 0.0 0.00 0.30 0.00 95 1012.1
20260507024103 39 196 0.0 0.0 0.00 0.30 0.00 94 1012.1
20260507024004 39 196 0.0 0.0 0.00 0.30 0.00 95 1012.1
20260507023801 39 196 0.0 0.0 0.00 0.30 0.00 95 1012.2
20260507023601 39 196 0.0 0.0 0.00 0.30 0.00 95 1012.1
20260507023503 39 196 0.0 0.0 0.00 0.30 0.00 95 1012.1
20260507022801 39 196 0.0 0.0 0.00 0.30 0.00 95 1012.2
20260507022703 39 196 0.0 0.0 0.00 0.30 0.00 95 1012.1
20260507022501 39 196 0.0 0.0 0.00 0.30 0.00 95 1012.2
20260507022201 39 196 0.0 1.0 0.00 0.30 0.00 94 1012.0
20260507022101 39 196 0.0 1.0 0.00 0.30 0.00 94 1012.1
20260507022004 39 196 0.0 1.0 0.00 0.30 0.00 94 1012.0
20260507021901 39 196 0.0 1.0 0.00 0.30 0.00 94 1012.0
20260507021801 39 197 0.0 1.0 0.00 0.30 0.00 95 1012.1
20260507021703 39 197 0.0 2.0 0.00 0.30 0.00 95 1012.0
20260507021603 39 196 1.0 2.0 0.00 0.30 0.00 95 1011.9
20260507021502 39 197 1.0 2.0 0.00 0.30 0.00 95 1012.0
20260507021401 39 197 1.0 2.0 0.00 0.30 0.00 95 1012.0
20260507021303 39 197 1.0 2.0 0.00 0.30 0.00 95 1011.9
20260507021004 39 197 1.0 2.0 0.00 0.30 0.00 94 1012.0
20260507020903 39 197 1.0 2.0 0.00 0.30 0.00 94 1012.0
20260507020701 39 197 1.0 2.0 0.00 0.30 0.00 94 1011.9
20260507020603 39 197 1.0 2.0 0.00 0.30 0.00 94 1012.0
20260507020501 39 197 0.0 2.0 0.00 0.30 0.00 94 1011.9
20260507020301 40 197 0.0 1.0 0.00 0.30 0.00 95 1012.0
20260507020201 40 197 0.0 1.0 0.00 0.30 0.00 95 1011.9
20260507020101 40 196 0.0 1.0 0.00 0.30 0.00 95 1012.0
20260507020009 40 196 0.0 1.0 0.00 0.30 0.00 95 1012.0
20260507015901 40 197 0.0 1.0 0.00 0.31 0.00 95 1012.0
20260507015801 40 197 0.0 1.0 0.00 0.31 0.00 95 1012.0
20260507015702 40 196 0.0 1.0 0.00 0.31 0.00 95 1012.0
20260507015501 40 197 0.0 1.0 0.00 0.31 0.00 94 1012.0
20260507015306 39 196 0.0 1.0 0.00 0.31 0.00 94 1012.0
20260507015200 39 197 0.0 1.0 0.00 0.31 0.00 94 1011.9
20260507015101 39 196 0.0 1.0 0.00 0.31 0.00 94 1011.9
20260507015002 39 197 0.0 1.0 0.00 0.31 0.00 94 1011.9
20260507014904 39 197 0.0 1.0 0.00 0.31 0.00 94 1011.8
20260507014701 39 197 0.0 1.0 0.00 0.31 0.00 94 1012.0
20260507014603 39 196 0.0 1.0 0.00 0.31 0.00 94 1011.9
20260507014501 39 196 0.0 1.0 0.00 0.31 0.00 94 1011.9
20260507014400 39 197 0.0 1.0 0.00 0.31 0.00 94 1011.8
20260507014204 39 197 0.0 1.0 0.00 0.31 0.00 94 1012.0
20260507014100 39 197 0.0 2.0 0.00 0.31 0.00 94 1012.0
20260507014001 40 197 0.0 2.0 0.00 0.31 0.00 94 1011.9
20260507013903 40 197 0.0 2.0 0.00 0.31 0.00 94 1011.9
20260507013802 40 197 0.0 2.0 0.00 0.31 0.00 94 1011.9
20260507013700 40 197 0.0 2.0 0.00 0.31 0.00 94 1011.9
20260507013601 40 197 0.0 2.0 0.00 0.31 0.00 94 1011.9
20260507013501 39 197 0.0 2.0 0.00 0.31 0.00 94 1012.0
20260507013402 39 197 0.0 2.0 0.00 0.31 0.00 94 1012.0
20260507013202 39 197 0.0 2.0 0.00 0.31 0.00 94 1012.0
20260507013101 39 196 0.0 2.0 0.00 0.31 0.00 94 1012.0
20260507013001 39 196 0.0 2.0 0.00 0.31 0.00 94 1011.9
20260507012903 39 196 0.0 2.0 0.00 0.31 0.00 94 1012.0
20260507012800 39 196 0.0 2.0 0.00 0.31 0.00 94 1012.0
20260507012702 39 196 0.0 2.0 0.00 0.31 0.00 94 1012.0
20260507012601 40 197 0.0 2.0 0.00 0.31 0.00 94 1012.1
20260507012401 39 196 0.0 2.0 0.00 0.31 0.00 94 1012.1
20260507012001 39 196 0.0 0.0 0.00 0.31 0.00 94 1012.1
20260507011903 39 196 0.0 0.0 0.00 0.31 0.00 94 1012.1
20260507011800 40 196 0.0 0.0 0.00 0.31 0.00 94 1012.2
20260507011700 40 196 0.0 0.0 0.00 0.31 0.00 94 1012.1
20260507011601 40 196 0.0 0.0 0.00 0.31 0.00 94 1012.1
20260507011504 40 196 0.0 0.0 0.00 0.31 0.00 94 1012.2
20260507011300 40 196 0.0 0.0 0.00 0.31 0.00 94 1012.1
20260507011202 40 196 0.0 0.0 0.00 0.31 0.00 94 1012.1
20260507011001 40 196 0.0 0.0 0.00 0.31 0.00 94 1012.0
20260507010901 40 196 0.0 0.0 0.00 0.31 0.00 94 1012.1
20260507010601 40 196 0.0 0.0 0.00 0.31 0.00 94 1012.0
20260507010500 40 196 0.0 0.0 0.00 0.31 0.00 94 1012.1
20260507010403 40 196 0.0 0.0 0.00 0.31 0.00 94 1012.0
20260507010300 40 196 0.0 0.0 0.00 0.31 0.00 94 1012.1
20260507010200 40 196 0.0 0.0 0.00 0.31 0.00 94 1012.0
20260507010101 40 196 0.0 0.0 0.00 0.31 0.00 94 1011.9
20260507005900 40 196 0.0 0.0 0.00 0.31 0.00 94 1012.0
20260507005802 40 196 0.0 0.0 0.00 0.31 0.00 94 1012.0
20260507005702 40 196 0.0 0.0 0.00 0.31 0.00 94 1012.0
20260507005601 40 196 0.0 0.0 0.00 0.31 0.00 94 1012.0
20260507005501 40 196 0.0 0.0 0.00 0.31 0.00 94 1012.0
20260507005403 40 196 0.0 0.0 0.00 0.31 0.00 94 1012.1
20260507005201 40 196 0.0 0.0 0.00 0.31 0.00 94 1012.0
20260507005102 40 196 0.0 0.0 0.00 0.31 0.00 94 1012.0
20260507005003 40 196 0.0 0.0 0.00 0.31 0.00 94 1012.2
20260507004800 40 196 0.0 0.0 0.00 0.31 0.00 94 1012.0
20260507004703 40 196 0.0 0.0 0.00 0.31 0.00 94 1012.1
20260507004601 40 196 0.0 0.0 0.00 0.31 0.00 94 1012.1
20260507004527 40 196 0.0 0.0 0.00 0.31 0.00 94 1012.1
20260507004418 40 196 0.0 0.0 0.00 0.31 0.00 94 1012.0
20260507004319 40 196 0.0 0.0 0.00 0.31 0.00 94 1012.1
20260507004217 40 196 0.0 0.0 0.00 0.31 0.00 94 1012.0
20260507004119 40 196 0.0 0.0 0.00 0.31 0.00 94 1012.0
20260507004041 40 196 0.0 0.0 0.00 0.31 0.00 94 1012.1
20260507003917 40 196 0.0 0.0 0.00 0.31 0.00 94 1012.1
20260507003817 40 196 0.0 0.0 0.00 0.31 0.00 94 1012.1
20260507003720 40 196 0.0 0.0 0.00 0.31 0.00 94 1012.1
20260507003618 40 196 0.0 0.0 0.00 0.31 0.00 94 1012.1
20260507003527 40 196 0.0 0.0 0.00 0.31 0.00 93 1012.0
20260507003418 40 196 0.0 0.0 0.00 0.31 0.00 93 1012.1
20260507003318 40 196 0.0 0.0 0.00 0.31 0.00 93 1012.0
20260507003217 40 197 0.0 0.0 0.00 0.31 0.00 93 1012.1
20260507003128 40 197 0.0 0.0 0.00 0.31 0.00 93 1012.1
20260507002917 40 197 0.0 0.0 0.00 0.31 0.00 93 1012.1
20260507002818 40 197 0.0 0.0 0.00 0.31 0.00 93 1012.1
20260507002720 40 197 0.0 0.0 0.00 0.31 0.00 93 1012.1
20260507002527 40 197 0.0 0.0 0.00 0.31 0.00 93 1012.1
20260507002417 40 197 0.0 0.0 0.00 0.31 0.00 93 1012.1
20260507002218 40 197 0.0 0.0 0.00 0.31 0.00 93 1012.0
20260507002119 40 197 0.0 0.0 0.00 0.31 0.00 93 1012.1
20260507002035 40 197 0.0 0.0 0.00 0.31 0.00 93 1012.1
20260507001817 40 197 0.0 0.0 0.00 0.31 0.00 93 1012.0
20260507001720 40 197 0.0 0.0 0.00 0.31 0.00 93 1012.0
20260507001617 40 197 0.0 0.0 0.00 0.31 0.00 93 1012.1
20260507001539 40 197 0.0 0.0 0.00 0.31 0.00 93 1012.0
20260507001319 40 197 0.0 0.0 0.00 0.31 0.00 93 1012.1
20260507001036 40 197 0.0 0.0 0.00 0.31 0.00 93 1012.0
20260507000917 41 197 0.0 0.0 0.00 0.31 0.00 93 1012.0
20260507000817 41 197 0.0 0.0 0.00 0.31 0.00 93 1012.1
20260507000720 41 197 0.0 0.0 0.00 0.31 0.00 93 1012.0
20260507000617 41 197 0.0 0.0 0.00 0.31 0.00 93 1012.1
20260507000527 41 197 0.0 0.0 0.00 0.31 0.00 93 1012.1
20260507000321 41 197 0.0 0.0 0.00 0.31 0.00 93 1012.1
20260507000219 41 197 0.0 0.0 0.00 0.31 0.00 93 1012.2
20260507000124 41 197 0.0 0.0 0.00 0.31 0.00 93 1012.1
20260506235917 41 196 0.0 0.0 0.00 0.31 0.00 93 1012.1
20260506235819 41 197 0.0 0.0 0.00 0.31 0.00 93 1012.1
20260506235618 41 197 0.0 0.0 0.00 0.31 0.00 93 1012.1
20260506235525 41 197 0.0 0.0 0.00 0.31 0.00 93 1012.1
20260506235420 41 197 0.0 0.0 0.00 0.31 0.00 93 1012.0
20260506235219 41 197 0.0 0.0 0.00 0.31 0.00 93 1011.9
20260506235117 41 197 0.0 0.0 0.00 0.31 0.00 93 1011.9
20260506235038 41 197 0.0 0.0 0.00 0.31 0.00 93 1012.0
20260506234917 41 197 0.0 0.0 0.00 0.31 0.00 93 1011.9
20260506234819 41 197 0.0 0.0 0.00 0.31 0.00 93 1011.9
20260506234617 41 197 0.0 0.0 0.00 0.31 0.00 93 1011.9
20260506234525 41 197 0.0 0.0 0.00 0.31 0.00 93 1011.9
20260506234420 41 197 0.0 0.0 0.00 0.31 0.00 93 1012.0
20260506234117 41 197 0.0 0.0 0.00 0.31 0.00 93 1011.9
20260506233917 41 197 0.0 0.0 0.00 0.31 0.00 93 1012.0
20260506233819 41 197 0.0 0.0 0.00 0.31 0.00 93 1011.9
20260506233718 41 197 0.0 0.0 0.00 0.31 0.00 93 1012.0
20260506233617 41 197 0.0 0.0 0.00 0.31 0.00 93 1011.8
20260506233525 41 197 0.0 0.0 0.00 0.31 0.00 93 1011.9
20260506233420 41 197 0.0 0.0 0.00 0.31 0.00 93 1011.9
20260506233317 41 197 0.0 0.0 0.00 0.31 0.00 93 1011.9
20260506233219 41 197 0.0 0.0 0.00 0.31 0.00 93 1011.8
20260506233117 41 197 0.0 0.0 0.00 0.31 0.00 92 1011.9
20260506233035 41 197 0.0 0.0 0.00 0.31 0.00 92 1011.8
20260506232919 41 197 0.0 0.0 0.00 0.31 0.00 92 1011.8
20260506232819 41 197 0.0 0.0 0.00 0.31 0.00 92 1011.7
20260506232719 41 197 0.0 0.0 0.00 0.31 0.00 92 1011.8
20260506232618 41 197 0.0 0.0 0.00 0.31 0.00 92 1011.8
20260506232525 41 197 0.0 0.0 0.00 0.31 0.00 92 1011.8
20260506232420 41 197 0.0 0.0 0.00 0.31 0.00 92 1011.8
20260506232317 41 197 0.0 0.0 0.00 0.31 0.00 92 1011.8
20260506232035 41 197 0.0 0.0 0.00 0.31 0.00 92 1011.8
20260506231917 41 197 0.0 0.0 0.00 0.31 0.00 92 1011.8
20260506231819 41 197 0.0 0.0 0.00 0.31 0.00 92 1011.7
20260506231718 41 197 0.0 0.0 0.00 0.31 0.00 92 1011.7
20260506231617 41 197 0.0 0.0 0.00 0.31 0.00 92 1011.7
20260506231420 41 197 0.0 0.0 0.00 0.31 0.00 92 1011.6
20260506231319 41 197 0.0 0.0 0.00 0.31 0.00 92 1011.7
20260506231218 41 197 0.0 0.0 0.00 0.31 0.00 92 1011.5
20260506231117 41 197 0.0 0.0 0.00 0.31 0.00 92 1011.6
20260506231035 41 197 0.0 0.0 0.00 0.31 0.00 92 1011.7
20260506230919 41 197 0.0 0.0 0.00 0.31 0.00 92 1011.5
20260506230817 41 197 0.0 0.0 0.00 0.31 0.00 92 1011.5
20260506230719 41 197 0.0 0.0 0.00 0.31 0.00 92 1011.5
20260506230617 41 197 0.0 0.0 0.00 0.31 0.00 93 1011.5
20260506230317 41 197 0.0 0.0 0.00 0.31 0.00 92 1011.4
20260506230218 41 197 0.0 0.0 0.00 0.31 0.00 92 1011.4
20260506230126 41 197 0.0 0.0 0.00 0.31 0.00 92 1011.5
20260506225920 41 197 1.0 4.0 0.00 0.31 0.00 92 1011.5
20260506225823 41 197 1.0 4.0 0.00 0.31 0.00 92 1011.5
20260506225720 41 197 1.0 4.0 0.00 0.31 0.00 92 1011.4
20260506225528 41 197 1.0 4.0 0.00 0.31 0.00 92 1011.4
20260506225421 42 197 1.0 4.0 0.00 0.31 0.00 92 1011.4
20260506225320 42 197 1.0 4.0 0.00 0.31 0.00 92 1011.4
20260506225222 42 196 1.0 4.0 0.00 0.31 0.00 92 1011.3
20260506225122 42 196 1.0 4.0 0.00 0.31 0.00 92 1011.4
20260506224921 42 197 0.0 3.0 0.00 0.31 0.00 92 1011.4
20260506224823 42 197 0.0 2.0 0.00 0.31 0.00 92 1011.3
20260506224620 42 197 0.0 2.0 0.00 0.31 0.00 91 1011.4
20260506224528 42 197 0.0 2.0 0.00 0.31 0.00 91 1011.4
20260506224423 42 197 0.0 2.0 0.00 0.31 0.00 92 1011.3
20260506224220 42 197 1.0 2.0 0.00 0.31 0.00 92 1011.4
20260506224121 42 197 1.0 3.0 0.00 0.31 0.00 92 1011.5
20260506224037 42 197 1.0 3.0 0.00 0.31 0.00 92 1011.4
20260506223922 42 197 1.0 3.0 0.00 0.31 0.00 92 1011.3
20260506223720 42 197 1.0 3.0 0.00 0.31 0.00 92 1011.5
20260506223621 42 197 1.0 3.0 0.00 0.31 0.00 92 1011.3
20260506223530 42 197 1.0 3.0 0.00 0.31 0.00 92 1011.3
20260506223420 42 197 1.0 3.0 0.00 0.31 0.00 92 1011.4
20260506223037 42 198 0.0 1.0 0.00 0.31 0.00 91 1011.3
20260506222922 42 198 0.0 1.0 0.00 0.31 0.00 91 1011.3
20260506222821 42 198 1.0 2.0 0.00 0.31 0.00 91 1011.3
20260506222720 42 198 1.0 3.0 0.00 0.31 0.00 91 1011.2
20260506222620 42 198 1.0 3.0 0.00 0.31 0.00 91 1011.4
20260506222530 42 198 1.0 3.0 0.00 0.31 0.00 91 1011.4
20260506222421 42 198 1.0 3.0 0.00 0.31 0.00 91 1011.3
20260506222322 42 198 1.0 3.0 0.00 0.31 0.00 91 1011.3
20260506222220 42 198 1.0 3.0 0.00 0.31 0.00 91 1011.3
20260506222121 42 198 1.0 3.0 0.00 0.31 0.00 91 1011.3
20260506222040 42 198 1.0 3.0 0.00 0.31 0.00 91 1011.2
20260506221922 42 198 1.0 3.0 0.00 0.31 0.00 91 1011.3
20260506221821 43 198 1.0 3.0 0.00 0.31 0.00 91 1011.3
20260506221721 43 198 0.0 3.0 0.00 0.31 0.00 91 1011.3
20260506221531 43 198 0.0 3.0 0.00 0.31 0.00 91 1011.2
20260506221420 43 198 0.0 3.0 0.00 0.31 0.00 91 1011.4
20260506221220 43 198 0.0 3.0 0.00 0.31 0.00 91 1011.3
20260506221121 43 198 0.0 2.0 0.00 0.31 0.00 91 1011.5
20260506221037 43 198 0.0 1.0 0.00 0.31 0.00 91 1011.3
20260506220922 43 198 0.0 1.0 0.00 0.31 0.00 91 1011.4
20260506220822 43 198 0.0 1.0 0.00 0.31 0.00 91 1011.3
20260506220720 43 198 0.0 1.0 0.00 0.31 0.00 91 1011.3
20260506220532 43 198 0.0 2.0 0.00 0.31 0.00 91 1011.3
20260506220422 43 198 0.0 2.0 0.00 0.31 0.00 91 1011.3
20260506220222 43 198 0.0 2.0 0.00 0.31 0.00 91 1011.4
20260506220044 43 198 1.0 2.0 0.00 0.31 0.00 90 1011.3
20260506215921 43 198 1.0 2.0 0.00 0.31 0.31 90 1011.3
20260506215822 43 198 0.0 2.0 0.00 0.31 0.31 90 1011.4
20260506215720 43 198 0.0 2.0 0.00 0.31 0.31 90 1011.3
20260506215622 43 198 0.0 1.0 0.00 0.31 0.31 90 1011.3
20260506215529 43 198 0.0 1.0 0.00 0.31 0.31 91 1011.2
20260506215421 43 198 0.0 1.0 0.00 0.31 0.31 91 1011.1
20260506215320 43 198 0.0 2.0 0.00 0.31 0.31 91 1011.3
20260506215120 43 198 1.0 3.0 0.00 0.31 0.31 91 1011.3
20260506215042 43 198 0.0 3.0 0.00 0.31 0.31 91 1011.2
20260506214921 43 198 1.0 3.0 0.00 0.31 0.31 91 1011.3
20260506214720 43 198 1.0 4.0 0.00 0.31 0.31 91 1011.2
20260506214622 43 198 1.0 4.0 0.00 0.31 0.31 90 1011.2
20260506214529 43 198 2.0 4.0 0.00 0.31 0.31 90 1011.2
20260506214421 43 198 2.0 4.0 0.00 0.31 0.31 90 1011.3
20260506214320 43 198 2.0 4.0 0.00 0.31 0.31 90 1011.2
20260506214223 43 198 2.0 4.0 0.00 0.31 0.31 90 1011.2
20260506214120 43 198 2.0 4.0 0.00 0.31 0.31 90 1011.2
20260506214039 43 198 2.0 4.0 0.00 0.31 0.31 90 1011.3
20260506213920 44 198 2.0 4.0 0.00 0.31 0.31 90 1011.2
20260506213822 44 199 1.0 4.0 0.00 0.31 0.31 90 1011.3
20260506213622 44 199 1.0 3.0 0.00 0.31 0.31 90 1011.2
20260506213529 44 199 1.0 3.0 0.00 0.31 0.31 90 1011.2
20260506213421 44 198 1.0 4.0 0.00 0.31 0.31 89 1011.1
20260506213321 44 198 1.0 4.0 0.00 0.31 0.31 89 1011.2
20260506213120 44 198 1.0 4.0 0.00 0.31 0.31 89 1011.2
20260506213039 44 198 1.0 4.0 0.00 0.31 0.31 89 1011.3
20260506212920 44 198 1.0 4.0 0.00 0.31 0.31 89 1011.2
20260506212822 44 198 1.0 4.0 0.00 0.31 0.31 89 1011.2
20260506212622 44 198 1.0 4.0 0.00 0.31 0.31 89 1011.2
20260506212530 44 198 1.0 3.0 0.00 0.31 0.31 89 1011.2
20260506212420 44 198 1.0 3.0 0.00 0.31 0.31 89 1011.2
20260506212320 45 198 1.0 3.0 0.00 0.31 0.31 89 1011.3
20260506212222 45 199 1.0 3.0 0.00 0.31 0.31 89 1011.2
20260506212121 45 199 1.0 3.0 0.00 0.31 0.31 89 1011.2
20260506212039 45 199 1.0 3.0 0.00 0.31 0.31 89 1011.1
20260506211822 45 199 1.0 3.0 0.00 0.31 0.31 88 1011.1
20260506211622 45 203 0.0 1.0 0.00 0.31 0.31 88 1011.1
20260506211530 45 203 0.0 1.0 0.00 0.31 0.31 88 1011.0
20260506211420 45 203 0.0 1.0 0.00 0.31 0.31 88 1011.1
20260506211321 45 203 0.0 2.0 0.00 0.31 0.31 88 1011.1
20260506211120 45 203 0.0 2.0 0.00 0.31 0.31 88 1011.0
20260506211042 45 203 0.0 2.0 0.00 0.31 0.31 88 1011.1
20260506210920 46 203 0.0 2.0 0.00 0.31 0.31 88 1011.0
20260506210822 46 203 0.0 2.0 0.00 0.31 0.31 88 1011.1
20260506210721 46 203 0.0 2.0 0.00 0.31 0.31 88 1011.1
20260506210622 46 203 0.0 2.0 0.00 0.31 0.31 88 1011.2
20260506210530 46 203 0.0 2.0 0.00 0.31 0.31 87 1011.1
20260506210421 46 203 0.0 2.0 0.00 0.31 0.31 87 1011.2
20260506210320 46 203 0.0 2.0 0.00 0.31 0.31 87 1011.1
20260506210223 46 203 0.0 2.0 0.00 0.31 0.31 87 1011.1
20260506210129 46 203 0.0 2.0 0.00 0.31 0.31 87 1011.1
20260506205923 46 203 0.0 2.0 0.00 0.31 0.31 87 1011.1
20260506205819 46 203 0.0 2.0 0.00 0.31 0.31 87 1011.1
20260506205722 46 203 0.0 2.0 0.00 0.31 0.31 87 1011.2
20260506205619 46 203 0.0 1.0 0.00 0.31 0.31 87 1011.1
20260506205529 46 203 0.0 1.0 0.00 0.31 0.31 87 1011.1
20260506205419 47 203 0.0 1.0 0.00 0.31 0.31 87 1011.0
20260506205321 47 203 0.0 1.0 0.00 0.31 0.31 87 1011.2
20260506205221 47 203 0.0 1.0 0.00 0.31 0.31 87 1011.1
20260506205119 47 203 0.0 1.0 0.00 0.31 0.31 87 1011.0
20260506205039 47 203 0.0 1.0 0.00 0.31 0.31 86 1011.2
20260506204922 47 203 0.0 1.0 0.00 0.31 0.31 86 1011.1
20260506204529 47 203 0.0 0.0 0.00 0.31 0.31 86 1011.1
20260506204321 47 203 1.0 4.0 0.00 0.31 0.31 86 1011.2
20260506204221 47 203 1.0 4.0 0.00 0.31 0.31 86 1011.0
20260506204119 47 203 1.0 4.0 0.00 0.31 0.31 86 1011.1
20260506204039 47 203 2.0 4.0 0.00 0.31 0.31 86 1011.1
20260506203821 48 203 2.0 4.0 0.00 0.31 0.31 86 1011.1
20260506203719 48 203 2.0 4.0 0.00 0.31 0.31 86 1011.1
20260506203620 48 203 3.0 4.0 0.00 0.31 0.31 85 1011.0
20260506203422 48 205 2.0 4.0 0.00 0.31 0.31 85 1011.0
20260506203320 48 217 2.0 4.0 0.00 0.31 0.31 85 1011.0
20260506203221 48 217 2.0 4.0 0.00 0.31 0.31 85 1011.1
20260506203120 48 217 2.0 4.0 0.00 0.31 0.31 85 1011.0
20260506203040 48 217 2.0 4.0 0.00 0.31 0.31 85 1010.9
20260506202924 48 205 2.0 4.0 0.00 0.31 0.31 85 1011.0
20260506202820 48 198 1.0 4.0 0.00 0.31 0.31 85 1011.0
20260506202720 48 199 1.0 3.0 0.00 0.31 0.31 85 1011.0
20260506202530 48 199 1.0 3.0 0.00 0.31 0.31 85 1011.0
20260506202420 49 199 1.0 3.0 0.00 0.31 0.31 84 1010.9
20260506202323 49 199 1.0 3.0 0.00 0.31 0.31 84 1011.0
20260506202221 49 199 1.0 3.0 0.00 0.31 0.31 84 1011.0
20260506202122 49 198 1.0 3.0 0.00 0.31 0.31 84 1011.0
20260506202044 49 190 1.0 3.0 0.00 0.31 0.31 83 1010.9
20260506201924 49 190 1.0 3.0 0.00 0.31 0.31 83 1011.0
20260506201823 49 190 1.0 3.0 0.00 0.31 0.31 83 1010.9
20260506201720 49 190 1.0 5.0 0.00 0.31 0.31 82 1011.0
20260506201534 50 190 1.0 5.0 0.00 0.31 0.31 82 1011.0
20260506201422 50 190 1.0 5.0 0.00 0.31 0.31 82 1011.0
20260506201126 50 190 3.0 7.0 0.00 0.31 0.31 81 1010.9
20260506201041 50 190 3.0 7.0 0.00 0.31 0.31 81 1011.0
20260506200921 50 190 3.0 8.0 0.00 0.31 0.31 81 1011.0
20260506200822 51 190 4.0 8.0 0.00 0.31 0.31 81 1010.9
20260506200620 51 190 5.0 9.0 0.00 0.31 0.31 80 1010.8
20260506200530 51 190 4.0 9.0 0.00 0.31 0.31 80 1010.8
20260506200421 51 159 4.0 9.0 0.00 0.31 0.31 80 1010.9
20260506200321 51 188 4.0 9.0 0.00 0.31 0.31 79 1010.9
20260506200220 52 188 3.0 9.0 0.00 0.31 0.31 79 1010.8
20260506200129 52 194 3.0 9.0 0.00 0.31 0.31 79 1010.7
20260506195921 52 182 1.0 9.0 0.00 0.31 0.31 78 1010.7
20260506195827 53 184 1.0 9.0 0.00 0.31 0.31 79 1010.7
20260506195622 53 192 1.0 4.0 0.00 0.31 0.31 80 1010.6
20260506195425 54 87 1.0 4.0 0.00 0.31 0.31 79 1010.6
20260506195321 54 87 1.0 4.0 0.00 0.31 0.31 79 1010.6
20260506195120 54 87 1.0 4.0 0.00 0.31 0.31 78 1010.6
20260506195039 55 87 1.0 4.0 0.00 0.31 0.31 78 1010.6
20260506194822 55 134 2.0 7.0 0.00 0.31 0.31 78 1010.6
20260506194624 55 126 3.0 7.0 0.00 0.31 0.31 78 1010.5
20260506194531 55 136 3.0 7.0 0.00 0.31 0.31 78 1010.6
20260506194430 55 134 3.0 7.0 0.00 0.31 0.31 78 1010.5
20260506194322 55 186 2.0 7.0 0.00 0.31 0.31 78 1010.5
20260506194221 55 147 2.0 7.0 0.00 0.31 0.31 78 1010.5
20260506194120 55 148 2.0 7.0 0.00 0.31 0.31 78 1010.6
20260506194039 55 147 2.0 7.0 0.00 0.31 0.31 77 1010.5
20260506193921 55 157 2.0 7.0 0.00 0.31 0.31 76 1010.6
20260506193822 55 190 2.0 6.0 0.00 0.31 0.31 75 1010.6
20260506193722 56 187 2.0 6.0 0.00 0.31 0.31 76 1010.5
20260506193620 56 142 1.0 4.0 0.00 0.31 0.31 76 1010.4
20260506193426 56 159 1.0 5.0 0.00 0.31 0.31 75 1010.6
20260506193320 56 159 1.0 5.0 0.00 0.31 0.31 75 1010.5
20260506193221 56 159 1.0 5.0 0.00 0.31 0.31 76 1010.4
20260506193132 56 161 1.0 5.0 0.00 0.31 0.31 76 1010.5
20260506192919 57 96 1.0 5.0 0.00 0.31 0.31 74 1010.4
20260506192721 57 67 1.0 5.0 0.00 0.31 0.31 74 1010.4
20260506192621 57 59 1.0 5.0 0.00 0.31 0.31 73 1010.4
20260506192527 57 59 1.0 5.0 0.00 0.31 0.31 73 1010.4
20260506192428 57 59 2.0 6.0 0.00 0.31 0.31 73 1010.4
20260506192321 57 60 2.0 6.0 0.00 0.31 0.31 73 1010.4
20260506192223 57 60 2.0 6.0 0.00 0.31 0.31 73 1010.4
20260506192126 57 61 3.0 6.0 0.00 0.31 0.31 73 1010.4
20260506192038 57 75 3.0 8.0 0.00 0.31 0.31 72 1010.4
20260506191920 57 75 4.0 8.0 0.00 0.31 0.31 72 1010.2
20260506191820 57 75 4.0 10.0 0.00 0.31 0.31 72 1010.4
20260506191723 57 75 4.0 10.0 0.00 0.31 0.31 72 1010.3
20260506191623 57 69 4.0 10.0 0.00 0.31 0.31 72 1010.2
20260506191421 57 63 4.0 10.0 0.00 0.31 0.31 73 1010.2
20260506191324 57 57 4.0 10.0 0.00 0.31 0.31 73 1010.2
20260506191222 57 68 4.0 10.0 0.00 0.31 0.31 73 1010.1
20260506191122 57 86 4.0 10.0 0.00 0.31 0.31 73 1010.2
20260506190926 56 141 3.0 10.0 0.00 0.31 0.31 72 1010.3
20260506190721 56 134 3.0 7.0 0.00 0.31 0.31 69 1010.2
20260506190627 56 150 3.0 7.0 0.00 0.31 0.31 70 1010.2
20260506190536 56 148 3.0 7.0 0.00 0.31 0.31 70 1010.0
20260506190419 56 150 3.0 7.0 0.00 0.31 0.31 72 1010.1
20260506190319 56 172 3.0 6.0 0.00 0.31 0.31 72 1010.0
20260506190222 56 194 2.0 6.0 0.00 0.31 0.31 69 1010.0
20260506190040 56 132 3.0 6.0 0.00 0.31 0.31 70 1009.9
20260506185925 56 107 3.0 7.0 0.00 0.31 0.31 70 1010.0
20260506185821 56 92 3.0 8.0 0.00 0.31 0.31 68 1010.0
20260506185719 56 88 3.0 8.0 0.00 0.31 0.31 68 1010.0
20260506185620 56 50 3.0 8.0 0.00 0.31 0.31 69 1010.0
20260506185534 56 62 3.0 8.0 0.00 0.31 0.31 69 1009.9
20260506185420 56 86 2.0 8.0 0.00 0.31 0.31 70 1009.8
20260506185325 56 185 2.0 8.0 0.00 0.31 0.31 69 1009.8
20260506185220 56 185 2.0 8.0 0.00 0.31 0.31 70 1009.9
20260506185036 57 192 1.0 8.0 0.00 0.31 0.31 71 1009.9
20260506184922 57 19 1.0 3.0 0.00 0.31 0.31 68 1009.7
20260506184821 57 132 1.0 3.0 0.00 0.31 0.31 66 1009.7
20260506184720 58 164 0.0 3.0 0.00 0.31 0.31 67 1009.8
20260506184622 58 164 1.0 4.0 0.00 0.31 0.31 66 1009.6
20260506184533 58 165 0.0 4.0 0.00 0.31 0.31 67 1009.7
20260506184419 58 184 0.0 3.0 0.00 0.31 0.31 67 1009.6
20260506184322 58 184 1.0 3.0 0.00 0.31 0.31 65 1009.6
20260506184121 59 184 1.0 4.0 0.00 0.31 0.31 65 1009.4
20260506184036 59 184 2.0 7.0 0.00 0.31 0.31 66 1009.5
20260506183923 59 184 3.0 9.0 0.00 0.31 0.31 62 1009.5
20260506183820 59 184 3.0 11.0 0.00 0.31 0.31 63 1009.4
20260506183719 59 184 3.0 11.0 0.00 0.31 0.31 63 1009.3
20260506183535 59 78 3.0 11.0 0.00 0.31 0.31 60 1009.4
20260506183420 59 84 3.0 11.0 0.00 0.31 0.31 60 1009.4
20260506183321 59 85 3.0 11.0 0.00 0.31 0.31 60 1009.3
20260506183124 59 109 3.0 11.0 0.00 0.31 0.31 60 1009.2
20260506183036 59 103 3.0 11.0 0.00 0.31 0.31 60 1009.3
20260506182919 58 112 3.0 11.0 0.00 0.31 0.31 62 1009.3
20260506182822 58 146 2.0 8.0 0.00 0.31 0.31 62 1009.3
20260506182722 59 57 2.0 8.0 0.00 0.31 0.31 62 1009.1
20260506182620 59 57 3.0 8.0 0.00 0.31 0.31 61 1009.1
20260506182528 59 57 3.0 8.0 0.00 0.31 0.31 61 1009.1
20260506182421 59 41 3.0 8.0 0.00 0.31 0.31 61 1009.1
20260506182322 59 5 3.0 8.0 0.00 0.31 0.31 61 1009.0
20260506182221 59 305 3.0 7.0 0.00 0.31 0.31 60 1009.0
20260506182036 59 18 4.0 9.0 0.00 0.31 0.31 60 1008.8
20260506181925 59 202 4.0 12.0 0.00 0.31 0.31 60 1008.8
20260506181820 59 147 5.0 12.0 0.00 0.31 0.31 61 1008.5
20260506181620 59 355 6.0 23.0 0.00 0.31 0.31 61 1008.4
20260506181529 59 214 7.0 22.0 0.00 0.31 0.31 60 1008.2
20260506181420 59 147 8.0 22.0 0.00 0.31 0.31 60 1008.2
20260506181321 59 217 8.0 22.0 0.00 0.31 0.31 60 1008.2
20260506181221 59 184 9.0 22.0 0.00 0.31 0.31 59 1008.2
20260506181123 59 177 9.0 22.0 0.00 0.31 0.31 59 1008.1
20260506180923 59 192 9.0 22.0 0.00 0.31 0.31 59 1007.9
20260506180820 59 188 8.0 22.0 0.00 0.31 0.31 59 1008.1
20260506180723 59 191 8.0 16.0 0.00 0.31 0.31 59 1007.9
20260506180620 59 198 8.0 16.0 0.00 0.31 0.31 59 1007.9
20260506180419 59 178 8.0 16.0 0.00 0.31 0.31 58 1007.9
20260506180123 60 219 9.0 15.0 0.00 0.31 0.31 57 1007.8
20260506180044 60 184 9.0 18.0 0.00 0.31 0.31 58 1007.9
20260506175922 60 172 9.0 18.0 0.00 0.31 0.31 58 1007.8
20260506175820 60 195 10.0 18.0 0.00 0.31 0.31 57 1007.9
20260506175529 60 187 11.0 20.0 0.00 0.31 0.31 57 1007.8
20260506175419 60 211 11.0 20.0 0.00 0.31 0.31 57 1007.8
20260506175322 60 210 11.0 20.0 0.00 0.31 0.31 57 1007.8
20260506175120 60 224 11.0 20.0 0.00 0.31 0.31 56 1007.7
20260506175036 60 171 11.0 20.0 0.00 0.31 0.31 56 1007.9
20260506174819 60 202 11.0 19.0 0.00 0.31 0.31 56 1007.7
20260506174721 60 182 10.0 19.0 0.00 0.31 0.31 56 1007.8
20260506174619 60 187 11.0 19.0 0.00 0.31 0.31 56 1007.6
20260506174529 61 208 10.0 19.0 0.00 0.31 0.31 55 1007.5
20260506174420 61 196 10.0 18.0 0.00 0.31 0.31 55 1007.5
20260506174321 61 181 10.0 18.0 0.00 0.31 0.31 56 1007.5
20260506174221 61 228 10.0 17.0 0.00 0.31 0.31 55 1007.3
20260506174119 61 196 10.0 17.0 0.00 0.31 0.31 56 1007.4
20260506174036 61 170 10.0 17.0 0.00 0.31 0.31 56 1007.3
20260506173921 61 190 10.0 17.0 0.00 0.31 0.31 55 1007.4
20260506173819 61 195 10.0 17.0 0.00 0.31 0.31 56 1007.4
20260506173619 61 188 11.0 20.0 0.00 0.31 0.31 56 1007.3
20260506173420 61 213 10.0 20.0 0.00 0.31 0.31 56 1007.3
20260506173322 61 182 10.0 20.0 0.00 0.31 0.31 56 1007.4
20260506173222 61 189 10.0 22.0 0.00 0.31 0.31 56 1007.5
20260506173120 61 207 11.0 22.0 0.00 0.31 0.31 56 1007.4
20260506173039 61 196 11.0 22.0 0.00 0.31 0.31 56 1007.3
20260506172922 61 187 11.0 22.0 0.00 0.31 0.31 56 1007.2
20260506172819 61 220 11.0 22.0 0.00 0.31 0.31 56 1007.2
20260506172719 61 197 11.0 22.0 0.00 0.31 0.31 57 1007.2
20260506172621 61 203 11.0 22.0 0.00 0.31 0.31 57 1007.1
20260506172419 61 202 11.0 22.0 0.00 0.31 0.31 56 1007.1
20260506172319 61 159 11.0 22.0 0.00 0.31 0.31 55 1007.0
20260506172222 61 202 11.0 22.0 0.00 0.31 0.31 54 1007.0
20260506172119 61 190 11.0 22.0 0.00 0.31 0.31 55 1007.0
20260506172036 62 169 11.0 22.0 0.00 0.31 0.31 55 1006.9
20260506171920 62 185 12.0 22.0 0.00 0.31 0.31 54 1007.0
20260506171821 62 161 12.0 21.0 0.00 0.31 0.31 55 1006.9
20260506171719 62 184 13.0 22.0 0.00 0.31 0.31 54 1007.0
20260506171528 62 166 14.0 22.0 0.00 0.31 0.31 54 1007.0
20260506171320 62 174 15.0 28.0 0.00 0.31 0.31 53 1006.9
20260506171219 62 176 15.0 28.0 0.00 0.31 0.31 53 1006.9
20260506171119 62 188 15.0 28.0 0.00 0.31 0.31 53 1006.9
20260506171041 62 187 15.0 28.0 0.00 0.31 0.31 53 1006.8
20260506170919 62 194 14.0 28.0 0.00 0.31 0.31 52 1006.8
20260506170821 62 202 13.0 28.0 0.00 0.31 0.31 52 1006.8
20260506170621 62 207 13.0 28.0 0.00 0.31 0.31 52 1006.8
20260506170527 62 186 12.0 28.0 0.00 0.31 0.31 52 1006.9
20260506170421 62 192 12.0 22.0 0.00 0.31 0.31 52 1006.8
20260506170320 62 213 12.0 22.0 0.00 0.31 0.31 52 1006.9
20260506170219 63 202 11.0 22.0 0.00 0.31 0.31 52 1006.7
20260506170122 63 234 10.0 22.0 0.00 0.31 0.31 51 1006.7
20260506170043 63 204 10.0 22.0 0.00 0.31 0.31 51 1006.6
20260506165920 63 193 10.0 22.0 0.00 0.31 0.31 53 1006.7
20260506165819 63 206 10.0 21.0 0.00 0.31 0.31 52 1006.7
20260506165722 63 153 10.0 21.0 0.00 0.31 0.31 52 1006.8
20260506165529 63 170 9.0 21.0 0.00 0.31 0.31 51 1006.8
20260506165419 63 203 9.0 19.0 0.00 0.31 0.31 51 1006.7
20260506165320 63 213 9.0 16.0 0.00 0.31 0.31 53 1006.7
20260506165220 63 197 10.0 25.0 0.00 0.31 0.31 53 1006.8
20260506165038 63 194 10.0 25.0 0.00 0.31 0.31 53 1006.7
20260506164919 63 188 10.0 25.0 0.00 0.31 0.31 52 1006.8
20260506164819 63 188 10.0 25.0 0.00 0.31 0.31 52 1006.7
20260506164529 63 203 11.0 25.0 0.00 0.31 0.31 52 1006.6
20260506164419 63 169 11.0 25.0 0.00 0.31 0.31 51 1006.8
20260506164320 63 207 11.0 21.0 0.00 0.31 0.31 51 1006.7
20260506164219 63 169 11.0 21.0 0.00 0.31 0.31 52 1006.8
20260506164121 63 196 11.0 21.0 0.00 0.31 0.31 52 1006.8
20260506164037 63 196 10.0 21.0 0.00 0.31 0.31 52 1006.7
20260506163919 63 200 10.0 21.0 0.00 0.31 0.31 51 1006.8
20260506163819 64 205 11.0 21.0 0.00 0.31 0.31 51 1006.7
20260506163722 64 188 11.0 21.0 0.00 0.31 0.31 50 1006.7
20260506163529 64 176 10.0 23.0 0.00 0.31 0.31 50 1006.7
20260506163420 64 178 9.0 23.0 0.00 0.31 0.31 51 1006.6
20260506163320 64 206 9.0 23.0 0.00 0.31 0.31 52 1006.6
20260506163219 64 226 9.0 23.0 0.00 0.31 0.31 51 1006.7
20260506163038 64 209 9.0 23.0 0.00 0.31 0.31 52 1006.7
20260506162919 64 178 9.0 23.0 0.00 0.31 0.31 51 1006.7
20260506162705 64 182 10.0 17.0 0.00 0.31 0.31 52 1006.7
20260506162603 64 200 10.0 17.0 0.00 0.31 0.31 52 1006.7
20260506162527 64 200 10.0 17.0 0.00 0.31 0.31 52 1006.7
20260506162421 65 192 10.0 19.0 0.00 0.31 0.31 52 1006.7
20260506162039 65 213 11.0 19.0 0.00 0.31 0.31 50 1006.6
20260506161821 65 182 11.0 19.0 0.00 0.31 0.31 50 1006.7
20260506161719 65 227 10.0 19.0 0.00 0.31 0.31 50 1006.7
20260506161527 65 205 9.0 18.0 0.00 0.31 0.31 49 1006.7
20260506161320 65 198 9.0 18.0 0.00 0.31 0.31 51 1006.8
20260506161219 65 190 8.0 18.0 0.00 0.31 0.31 50 1006.8
20260506161119 65 180 7.0 14.0 0.00 0.31 0.31 49 1006.7
20260506161039 65 205 7.0 14.0 0.00 0.31 0.31 49 1006.8
20260506160919 65 198 8.0 12.0 0.00 0.31 0.31 49 1006.7
20260506160821 65 214 8.0 17.0 0.00 0.31 0.31 51 1006.7
20260506160719 65 198 8.0 21.0 0.00 0.31 0.31 51 1006.7
20260506160620 65 165 9.0 21.0 0.00 0.31 0.31 52 1006.7
20260506160528 65 142 8.0 21.0 0.00 0.31 0.31 52 1006.7
20260506160421 65 219 9.0 21.0 0.00 0.31 0.31 51 1006.5
20260506160321 65 196 9.0 21.0 0.00 0.31 0.31 51 1006.7
20260506160219 65 194 9.0 21.0 0.00 0.31 0.31 51 1006.7
20260506160042 65 178 11.0 21.0 0.00 0.31 0.31 48 1006.7
20260506155919 65 189 10.0 25.0 0.00 0.31 0.31 50 1006.8
20260506155819 65 175 9.0 20.0 0.00 0.31 0.31 50 1006.7
20260506155722 65 181 9.0 20.0 0.00 0.31 0.31 50 1006.8
20260506155620 65 192 9.0 18.0 0.00 0.31 0.31 50 1006.8
20260506155527 65 200 10.0 18.0 0.00 0.31 0.31 51 1006.7
20260506155421 66 188 10.0 18.0 0.00 0.31 0.31 50 1006.8
20260506155321 66 180 10.0 18.0 0.00 0.31 0.31 51 1006.6
20260506155219 66 191 10.0 18.0 0.00 0.31 0.31 49 1006.7
20260506155038 66 194 10.0 18.0 0.00 0.31 0.31 50 1006.8
20260506154919 66 194 10.0 17.0 0.00 0.31 0.31 50 1006.7
20260506154820 66 153 11.0 17.0 0.00 0.31 0.31 49 1006.7
20260506154723 66 178 11.0 17.0 0.00 0.31 0.31 48 1006.8
20260506154420 66 193 11.0 19.0 0.00 0.31 0.31 47 1006.7
20260506154221 66 217 11.0 19.0 0.00 0.31 0.31 47 1006.6
20260506154120 66 202 11.0 19.0 0.00 0.31 0.31 48 1006.8
20260506154037 66 185 11.0 23.0 0.00 0.31 0.31 50 1006.8
20260506153821 66 185 11.0 23.0 0.00 0.31 0.31 47 1006.6
20260506153704 66 185 10.0 23.0 0.00 0.31 0.31 47 1006.7
20260506153603 66 182 10.0 23.0 0.00 0.31 0.31 47 1006.7
20260506153502 66 224 10.0 23.0 0.00 0.31 0.31 48 1006.6
20260506153404 66 196 10.0 23.0 0.00 0.31 0.31 48 1006.6
20260506153302 66 144 10.0 23.0 0.00 0.31 0.31 47 1006.7
20260506153203 66 163 9.0 23.0 0.00 0.31 0.31 46 1006.7
20260506153102 67 194 9.0 16.0 0.00 0.31 0.31 48 1006.7
20260506153005 67 197 8.0 18.0 0.00 0.31 0.31 47 1006.6
20260506152902 67 143 8.0 15.0 0.00 0.31 0.31 48 1006.8
20260506152802 67 190 7.0 14.0 0.00 0.31 0.31 48 1006.8
20260506152704 67 179 7.0 14.0 0.00 0.31 0.31 49 1006.8
20260506152502 67 192 7.0 13.0 0.00 0.31 0.31 49 1006.7
20260506152402 67 205 7.0 11.0 0.00 0.31 0.31 48 1006.7
20260506152102 67 211 7.0 13.0 0.00 0.31 0.31 50 1006.7
20260506152004 67 237 7.0 13.0 0.00 0.31 0.31 48 1006.8
20260506151904 67 199 8.0 13.0 0.00 0.31 0.31 48 1006.7
20260506151704 67 229 9.0 13.0 0.00 0.31 0.31 49 1006.8
20260506151602 67 190 9.0 16.0 0.00 0.31 0.31 48 1006.8
20260506151502 67 200 9.0 20.0 0.00 0.31 0.31 49 1006.8
20260506151402 67 169 9.0 20.0 0.00 0.31 0.31 50 1006.8
20260506151304 67 194 9.0 20.0 0.00 0.31 0.31 48 1006.8
20260506151204 67 194 8.0 20.0 0.00 0.31 0.31 47 1006.9
20260506151102 67 215 8.0 20.0 0.00 0.31 0.31 49 1006.7
20260506151004 67 187 8.0 20.0 0.00 0.31 0.31 47 1006.8
20260506150906 67 198 8.0 20.0 0.00 0.31 0.31 49 1006.9
20260506150802 67 171 7.0 20.0 0.00 0.31 0.31 49 1006.8
20260506150604 67 192 7.0 16.0 0.00 0.31 0.31 48 1006.8
20260506150504 67 209 7.0 16.0 0.00 0.31 0.31 48 1006.9
20260506150402 67 191 8.0 16.0 0.00 0.31 0.31 49 1006.9
20260506150221 67 193 8.0 16.0 0.00 0.31 0.31 49 1006.9
20260506150119 67 223 8.0 16.0 0.00 0.31 0.31 49 1006.9
20260506150039 67 196 8.0 16.0 0.00 0.31 0.31 47 1006.9
20260506145819 67 189 8.0 16.0 0.00 0.31 0.31 49 1006.9
20260506145721 67 188 8.0 16.0 0.00 0.31 0.31 47 1007.0
20260506145619 67 185 7.0 16.0 0.00 0.31 0.31 50 1007.0
20260506145419 67 178 7.0 13.0 0.00 0.31 0.31 49 1007.0
20260506145321 67 194 7.0 13.0 0.00 0.31 0.31 47 1006.9
20260506145220 67 210 7.0 13.0 0.00 0.31 0.31 48 1006.9
20260506145036 67 171 6.0 13.0 0.00 0.31 0.31 50 1007.1
20260506144922 67 186 5.0 15.0 0.00 0.31 0.31 50 1007.0
20260506144819 67 207 5.0 12.0 0.00 0.31 0.31 49 1007.1
20260506144721 67 205 5.0 12.0 0.00 0.31 0.31 50 1007.0
20260506144620 67 196 5.0 12.0 0.00 0.31 0.31 49 1007.0
20260506144528 67 192 5.0 14.0 0.00 0.31 0.31 51 1007.1
20260506144220 67 196 6.0 18.0 0.00 0.31 0.31 51 1007.0
20260506144119 67 189 6.0 18.0 0.00 0.31 0.31 51 1007.1
20260506143922 67 214 7.0 18.0 0.00 0.31 0.31 51 1007.0
20260506143819 67 225 7.0 18.0 0.00 0.31 0.31 49 1007.1
20260506143721 67 194 7.0 18.0 0.00 0.31 0.31 49 1007.1
20260506143621 67 215 6.0 18.0 0.00 0.31 0.31 53 1007.3
20260506143419 67 169 6.0 18.0 0.00 0.31 0.31 50 1007.1
20260506143319 67 183 6.0 13.0 0.00 0.31 0.31 53 1007.0
20260506143222 67 208 6.0 17.0 0.00 0.31 0.31 52 1007.2
20260506143119 67 185 7.0 17.0 0.00 0.31 0.31 51 1007.0
20260506143037 67 167 7.0 17.0 0.00 0.31 0.31 50 1007.2
20260506142922 67 194 7.0 17.0 0.00 0.31 0.31 53 1007.1
20260506142819 67 272 7.0 17.0 0.00 0.31 0.31 51 1007.1
20260506142719 67 241 8.0 17.0 0.00 0.31 0.31 51 1007.3
20260506142621 67 213 8.0 17.0 0.00 0.31 0.31 49 1007.1
20260506142529 67 207 8.0 17.0 0.00 0.31 0.31 55 1007.2
20260506142419 67 169 8.0 17.0 0.00 0.31 0.31 51 1007.3
20260506142322 67 162 8.0 16.0 0.00 0.31 0.31 53 1007.2
20260506142219 67 196 8.0 16.0 0.00 0.31 0.31 50 1007.2
20260506142122 67 209 9.0 16.0 0.00 0.31 0.31 50 1007.2
20260506141919 67 159 9.0 16.0 0.00 0.31 0.31 51 1007.2
20260506141819 67 191 8.0 16.0 0.00 0.31 0.31 53 1007.3
20260506141722 67 200 8.0 16.0 0.00 0.31 0.31 52 1007.2
20260506141619 67 195 8.0 16.0 0.00 0.31 0.31 51 1007.2
20260506141529 67 158 8.0 15.0 0.00 0.31 0.31 52 1007.3
20260506141419 67 168 8.0 15.0 0.00 0.31 0.31 52 1007.2
20260506141321 67 148 8.0 15.0 0.00 0.31 0.31 53 1007.3
20260506141219 67 180 9.0 15.0 0.00 0.31 0.31 51 1007.2
20260506141121 67 254 9.0 17.0 0.00 0.31 0.31 52 1007.2
20260506141038 67 171 9.0 17.0 0.00 0.31 0.31 50 1007.2
20260506140919 67 176 9.0 17.0 0.00 0.31 0.31 55 1007.3
20260506140819 67 181 9.0 17.0 0.00 0.31 0.31 53 1007.4
20260506140619 67 196 8.0 17.0 0.00 0.31 0.31 52 1007.3
20260506140528 67 182 9.0 17.0 0.00 0.31 0.31 55 1007.4
20260506140321 67 182 8.0 17.0 0.00 0.31 0.31 53 1007.3
20260506140219 67 190 8.0 17.0 0.00 0.31 0.31 52 1007.4
20260506140040 67 159 7.0 17.0 0.00 0.31 0.31 52 1007.3
20260506135919 67 188 8.0 17.0 0.00 0.31 0.31 54 1007.4
20260506135821 67 198 8.0 17.0 0.00 0.31 0.31 52 1007.3
20260506135720 67 198 8.0 17.0 0.00 0.31 0.31 50 1007.4
20260506135620 67 198 8.0 17.0 0.00 0.31 0.31 52 1007.4
20260506135527 67 213 9.0 17.0 0.00 0.31 0.31 52 1007.4
20260506135421 67 207 9.0 17.0 0.00 0.31 0.31 50 1007.4
20260506135319 67 222 9.0 16.0 0.00 0.31 0.31 53 1007.4
20260506135220 67 197 9.0 16.0 0.00 0.31 0.31 54 1007.4
20260506135037 67 186 10.0 18.0 0.00 0.31 0.31 53 1007.4
20260506134919 67 191 10.0 18.0 0.00 0.31 0.31 52 1007.5
20260506134821 67 186 10.0 18.0 0.00 0.31 0.31 54 1007.4
20260506134720 67 152 10.0 18.0 0.00 0.31 0.31 54 1007.4
20260506134619 67 211 11.0 18.0 0.00 0.31 0.31 52 1007.5
20260506134319 67 199 10.0 18.0 0.00 0.31 0.31 55 1007.5
20260506134221 67 178 10.0 18.0 0.00 0.31 0.31 53 1007.5
20260506134119 67 192 10.0 18.0 0.00 0.31 0.31 55 1007.5
20260506134038 67 203 9.0 17.0 0.00 0.31 0.31 55 1007.6
20260506133720 67 184 9.0 19.0 0.00 0.31 0.31 54 1007.7
20260506133502 67 191 10.0 20.0 0.00 0.31 0.31 53 1007.6
20260506133404 67 187 9.0 20.0 0.00 0.31 0.31 54 1007.6
20260506133302 67 205 9.0 20.0 0.00 0.31 0.31 55 1007.6
20260506133202 67 194 9.0 20.0 0.00 0.31 0.31 54 1007.5
20260506133106 67 194 9.0 20.0 0.00 0.31 0.31 56 1007.6
20260506133004 67 218 10.0 20.0 0.00 0.31 0.31 57 1007.6
20260506132902 67 156 9.0 20.0 0.00 0.31 0.31 54 1007.6
20260506132802 67 184 9.0 21.0 0.00 0.31 0.31 54 1007.6
20260506132602 67 184 8.0 18.0 0.00 0.31 0.31 55 1007.6
20260506132527 67 162 8.0 18.0 0.00 0.31 0.31 57 1007.6
20260506132006 67 144 8.0 18.0 0.00 0.31 0.31 57 1007.6
20260506131902 67 195 9.0 15.0 0.00 0.31 0.31 57 1007.5
20260506131803 67 209 9.0 15.0 0.00 0.31 0.31 56 1007.6
20260506131703 67 175 9.0 17.0 0.00 0.31 0.31 57 1007.5
20260506131606 67 193 9.0 17.0 0.00 0.31 0.31 56 1007.5
20260506131506 67 203 9.0 17.0 0.00 0.31 0.31 56 1007.7
20260506131420 67 201 9.0 17.0 0.00 0.31 0.31 58 1007.7
20260506131321 67 174 8.0 23.0 0.00 0.31 0.31 58 1007.5
20260506131220 67 188 8.0 23.0 0.00 0.31 0.31 58 1007.6
20260506131119 67 159 9.0 23.0 0.00 0.31 0.31 60 1007.5
20260506131003 67 235 9.0 23.0 0.00 0.31 0.31 56 1007.6
20260506130904 67 153 10.0 23.0 0.00 0.31 0.31 57 1007.7
20260506130802 67 190 9.0 23.0 0.00 0.31 0.31 55 1007.7
20260506130702 67 186 9.0 23.0 0.00 0.31 0.31 58 1007.6
20260506130602 67 194 9.0 23.0 0.00 0.31 0.31 58 1007.6
20260506130505 67 135 9.0 22.0 0.00 0.31 0.31 58 1007.6
20260506130402 67 179 10.0 18.0 0.00 0.31 0.31 61 1007.5
20260506130302 66 173 10.0 18.0 0.00 0.31 0.31 58 1007.5
20260506130202 67 186 9.0 19.0 0.00 0.31 0.31 57 1007.6
20260506130106 67 160 9.0 20.0 0.00 0.31 0.31 58 1007.5
20260506130005 67 169 9.0 20.0 0.00 0.31 0.31 58 1007.5
20260506125901 67 192 9.0 20.0 0.00 0.31 0.31 57 1007.6
20260506125701 67 181 9.0 20.0 0.00 0.31 0.31 58 1007.7
20260506125601 67 190 9.0 20.0 0.00 0.31 0.31 59 1007.7
20260506125501 66 192 9.0 20.0 0.00 0.31 0.31 58 1007.8
20260506125304 67 155 9.0 17.0 0.00 0.31 0.31 58 1007.7
20260506125201 67 193 9.0 14.0 0.00 0.31 0.31 55 1007.6
20260506125104 67 199 9.0 14.0 0.00 0.31 0.31 56 1007.7
20260506125004 67 171 9.0 19.0 0.00 0.31 0.31 56 1007.7
20260506124902 67 187 9.0 19.0 0.00 0.31 0.31 59 1007.7
20260506124704 67 177 9.0 19.0 0.00 0.31 0.31 59 1007.6
20260506124601 67 181 10.0 19.0 0.00 0.31 0.31 61 1007.6
20260506124502 66 183 10.0 19.0 0.00 0.31 0.31 57 1007.6
20260506124407 66 144 10.0 19.0 0.00 0.31 0.31 59 1007.6
20260506124323 66 182 11.0 19.0 0.00 0.31 0.31 59 1007.6
20260506124219 66 186 11.0 19.0 0.00 0.31 0.31 58 1007.7
20260506124123 66 181 11.0 19.0 0.00 0.31 0.31 59 1007.5
20260506124037 66 186 11.0 19.0 0.00 0.31 0.31 61 1007.6
20260506123718 66 190 11.0 19.0 0.00 0.31 0.31 58 1007.5
20260506123620 66 180 11.0 19.0 0.00 0.31 0.31 58 1007.7
20260506123319 66 173 10.0 19.0 0.00 0.31 0.31 61 1007.6
20260506123118 66 182 10.0 19.0 0.00 0.31 0.31 62 1007.6
20260506123037 66 198 10.0 19.0 0.00 0.31 0.31 58 1007.5
20260506122918 66 202 10.0 19.0 0.00 0.31 0.31 62 1007.6
20260506122821 66 159 10.0 21.0 0.00 0.31 0.31 60 1007.7
20260506122718 66 187 10.0 21.0 0.00 0.31 0.31 58 1007.6
20260506122526 66 202 10.0 21.0 0.00 0.31 0.31 61 1007.6
20260506122419 66 161 11.0 21.0 0.00 0.31 0.31 61 1007.5
20260506122218 66 202 11.0 21.0 0.00 0.31 0.31 62 1007.5
20260506122118 66 159 11.0 21.0 0.00 0.31 0.31 63 1007.5
20260506122037 66 200 11.0 21.0 0.00 0.31 0.31 61 1007.5
20260506121918 66 190 11.0 21.0 0.00 0.31 0.31 63 1007.4
20260506121820 66 211 11.0 21.0 0.00 0.31 0.31 61 1007.6
20260506121718 66 172 11.0 21.0 0.00 0.31 0.31 64 1007.5
20260506121420 66 224 11.0 20.0 0.00 0.31 0.31 62 1007.4
20260506121320 66 163 12.0 20.0 0.00 0.31 0.31 62 1007.5
20260506121218 66 211 12.0 20.0 0.00 0.31 0.31 62 1007.4
20260506121118 66 186 12.0 21.0 0.00 0.31 0.31 62 1007.6
20260506121037 66 198 11.0 21.0 0.00 0.31 0.31 64 1007.6
20260506120918 66 204 11.0 21.0 0.00 0.31 0.31 66 1007.5
20260506120820 65 205 10.0 21.0 0.00 0.31 0.31 65 1007.5
20260506120718 65 186 10.0 21.0 0.00 0.31 0.31 64 1007.5
20260506120619 65 219 9.0 21.0 0.00 0.31 0.31 64 1007.6
20260506120526 65 180 8.0 21.0 0.00 0.31 0.31 64 1007.6
20260506120420 65 155 7.0 21.0 0.00 0.31 0.31 65 1007.6
20260506120321 65 185 6.0 21.0 0.00 0.31 0.31 64 1007.6
20260506120218 64 170 5.0 15.0 0.00 0.31 0.31 67 1007.4
20260506120120 64 133 5.0 15.0 0.00 0.31 0.31 74 1007.6
20260506120041 64 210 6.0 15.0 0.00 0.31 0.31 74 1007.6
20260506115919 63 117 6.0 13.0 0.00 0.33 0.31 78 1007.6
20260506115821 63 63 6.0 13.0 0.00 0.33 0.31 80 1007.6
20260506115620 63 60 5.0 13.0 0.00 0.33 0.31 80 1007.7
20260506115527 63 50 5.0 13.0 0.00 0.33 0.31 81 1007.7
20260506115421 63 84 5.0 13.0 0.00 0.33 0.31 83 1007.6
20260506115321 63 69 5.0 13.0 0.00 0.33 0.31 81 1007.7
20260506115119 63 51 4.0 13.0 0.00 0.33 0.31 81 1007.7
20260506115038 63 62 4.0 11.0 0.00 0.33 0.31 84 1007.7